GEFSSGP_prec_meanprecacc_102.txt.gz
Total_Precipitation_Accumulation
0.01 0.03 0.10 0.20 0.29 0.40 0.47 0.29 0.18 0.13 0.04 0.02 0.02 0.01 0.01 0.00 0.01 0.06 0.01 0.00 0.00 0.00 0.01 0.02 0.02 0.02 0.02 0.02 0.03 0.05 0.04 0.03 0.03 0.05 0.05 0.04 0.03 0.03 0.02 0.04 0.10 0.12 0.10 0.07 0.04 0.03 0.03 0.04 0.04
0.01 0.03 0.11 0.16 0.30 0.65 0.51 0.24 0.17 0.16 0.03 0.02 0.03 0.02 0.01 0.00 0.00 0.00 0.00 0.00 0.00 0.00 0.00 0.01 0.02 0.02 0.02 0.01 0.02 0.03 0.04 0.04 0.06 0.08 0.06 0.05 0.05 0.04 0.04 0.04 0.07 0.10 0.08 0.07 0.03 0.02 0.02 0.02 0.01
0.02 0.04 0.08 0.11 0.34 0.58 0.38 0.22 0.14 0.08 0.03 0.03 0.02 0.02 0.01 0.00 0.00 0.00 0.00 0.00 0.00 0.00 0.00 0.02 0.02 0.01 0.01 0.01 0.02 0.03 0.04 0.06 0.08 0.09 0.08 0.08 0.07 0.06 0.06 0.06 0.07 0.07 0.04 0.04 0.05 0.04 0.03 0.02 0.01
0.01 0.03 0.06 0.10 0.19 0.21 0.21 0.19 0.09 0.09 0.08 0.04 0.03 0.03 0.01 0.01 0.00 0.00 0.00 0.00 0.00 0.00 0.00 0.02 0.02 0.01 0.02 0.01 0.02 0.02 0.03 0.05 0.06 0.06 0.06 0.06 0.06 0.08 0.08 0.07 0.09 0.10 0.09 0.06 0.07 0.06 0.07 0.05 0.03
0.00 0.02 0.04 0.08 0.15 0.13 0.14 0.17 0.11 0.14 0.10 0.05 0.05 0.07 0.04 0.01 0.00 0.00 0.00 0.00 0.00 0.00 0.01 0.02 0.02 0.02 0.01 0.01 0.02 0.02 0.03 0.04 0.05 0.04 0.04 0.04 0.04 0.05 0.06 0.07 0.07 0.08 0.11 0.10 0.10 0.10 0.08 0.09 0.08
0.00 0.01 0.03 0.07 0.10 0.10 0.11 0.14 0.19 0.24 0.19 0.09 0.09 0.17 0.09 0.01 0.00 0.00 0.00 0.00 0.00 0.00 0.01 0.02 0.02 0.02 0.01 0.01 0.02 0.02 0.02 0.03 0.03 0.03 0.03 0.02 0.02 0.03 0.05 0.06 0.05 0.04 0.05 0.06 0.09 0.13 0.11 0.09 0.13
0.00 0.00 0.02 0.05 0.05 0.07 0.09 0.11 0.19 0.31 0.34 0.23 0.17 0.16 0.06 0.01 0.00 0.00 0.00 0.00 0.00 0.00 0.00 0.01 0.02 0.02 0.02 0.01 0.01 0.02 0.02 0.02 0.02 0.02 0.02 0.02 0.02 0.02 0.02 0.03 0.02 0.02 0.03 0.04 0.06 0.07 0.08 0.08 0.12
0.00 0.00 0.01 0.02 0.02 0.04 0.06 0.09 0.13 0.20 0.33 0.26 0.23 0.09 0.04 0.02 0.02 0.01 0.01 0.02 0.02 0.02 0.01 0.01 0.01 0.01 0.01 0.01 0.02 0.02 0.02 0.02 0.02 0.03 0.03 0.03 0.03 0.02 0.02 0.03 0.02 0.03 0.04 0.05 0.07 0.08 0.08 0.10 0.12
0.00 0.00 0.00 0.01 0.02 0.03 0.05 0.08 0.11 0.20 0.23 0.17 0.21 0.18 0.07 0.03 0.03 0.01 0.03 0.04 0.05 0.05 0.03 0.01 0.01 0.01 0.01 0.01 0.01 0.02 0.02 0.03 0.03 0.04 0.04 0.05 0.05 0.05 0.08 0.06 0.10 0.12 0.16 0.18 0.22 0.25 0.26 0.26 0.19
0.00 0.00 0.00 0.00 0.01 0.02 0.03 0.06 0.06 0.14 0.20 0.18 0.15 0.18 0.11 0.05 0.04 0.03 0.04 0.05 0.10 0.08 0.05 0.04 0.02 0.02 0.02 0.03 0.03 0.03 0.03 0.05 0.06 0.11 0.13 0.14 0.16 0.14 0.09 0.12 0.22 0.38 0.50 0.55 0.67 0.79 0.64 0.50 0.50
0.00 0.00 0.00 0.00 0.00 0.01 0.01 0.02 0.03 0.06 0.11 0.13 0.12 0.20 0.15 0.07 0.03 0.04 0.05 0.10 0.09 0.10 0.10 0.09 0.07 0.05 0.07 0.08 0.09 0.09 0.08 0.15 0.17 0.21 0.29 0.30 0.26 0.20 0.16 0.22 0.39 0.61 0.70 0.69 1.00 1.14 0.81 0.89 1.12
0.00 0.00 0.00 0.00 0.00 0.00 0.00 0.01 0.01 0.05 0.13 0.19 0.18 0.35 0.27 0.06 0.05 0.07 0.09 0.17 0.22 0.26 0.22 0.19 0.18 0.17 0.19 0.20 0.18 0.17 0.17 0.22 0.29 0.33 0.41 0.49 0.52 0.43 0.41 0.48 0.58 0.74 0.80 0.99 1.09 1.23 1.09 1.20 1.20
0.00 0.00 0.00 0.00 0.00 0.00 0.00 0.00 0.01 0.06 0.16 0.26 0.31 0.31 0.33 0.17 0.13 0.11 0.18 0.28 0.39 0.44 0.34 0.32 0.32 0.32 0.30 0.35 0.39 0.35 0.32 0.38 0.44 0.54 0.63 0.71 0.81 0.78 0.78 0.75 0.82 0.79 0.93 1.10 1.29 1.21 1.41 1.47 1.36
0.00 0.00 0.00 0.00 0.00 0.00 0.00 0.00 0.01 0.05 0.11 0.18 0.30 0.42 0.36 0.24 0.23 0.17 0.19 0.38 0.57 0.53 0.44 0.48 0.49 0.54 0.62 0.63 0.64 0.64 0.64 0.72 0.77 0.82 0.88 0.95 1.09 1.23 1.16 1.02 1.06 1.00 1.11 1.33 1.50 1.44 1.70 1.58 1.51
0.00 0.00 0.00 0.00 0.00 0.00 0.00 0.01 0.02 0.07 0.10 0.19 0.24 0.35 0.38 0.34 0.25 0.19 0.23 0.35 0.48 0.49 0.50 0.62 0.83 0.96 1.03 1.04 1.03 1.07 1.12 1.09 1.07 1.21 1.33 1.42 1.44 1.50 1.41 1.24 1.18 1.30 1.41 1.58 1.60 1.64 1.80 1.60 1.50
0.00 0.00 0.00 0.00 0.00 0.00 0.00 0.02 0.06 0.15 0.13 0.16 0.22 0.34 0.42 0.41 0.35 0.32 0.35 0.41 0.53 0.63 0.73 0.91 1.15 1.37 1.49 1.51 1.55 1.63 1.57 1.53 1.63 1.70 1.73 1.74 1.69 1.67 1.75 1.50 1.33 1.60 1.73 1.81 1.90 1.87 1.86 1.77 1.63
0.00 0.00 0.00 0.00 0.00 0.00 0.01 0.04 0.08 0.15 0.16 0.23 0.30 0.34 0.37 0.39 0.43 0.47 0.53 0.62 0.81 1.07 1.28 1.52 1.55 1.63 1.79 2.01 2.15 2.01 1.91 1.80 1.80 1.83 1.83 1.80 1.80 1.82 2.03 1.81 1.76 1.93 2.09 2.00 1.87 2.09 2.15 1.97 1.82
0.00 0.00 0.00 0.01 0.01 0.01 0.02 0.06 0.13 0.23 0.30 0.38 0.41 0.45 0.52 0.60 0.77 0.88 0.99 1.13 1.27 1.59 1.84 1.88 1.86 2.06 2.53 2.83 2.74 2.45 2.12 1.93 1.86 1.79 1.74 1.77 1.90 2.00 2.23 2.01 2.02 2.19 2.27 2.25 2.24 2.28 2.24 2.09 2.05
0.00 0.01 0.01 0.01 0.03 0.05 0.06 0.13 0.29 0.44 0.49 0.52 0.67 0.85 1.07 1.25 1.34 1.45 1.63 1.80 1.88 1.91 2.04 2.14 2.41 2.80 3.00 2.97 2.96 2.92 2.60 2.30 1.98 1.76 1.77 1.85 1.89 2.04 2.28 2.02 2.28 2.41 2.36 2.38 2.38 2.47 2.31 2.11 2.24
0.02 0.03 0.02 0.02 0.05 0.09 0.15 0.23 0.40 0.63 0.67 0.60 0.59 0.68 0.87 1.27 1.50 1.65 1.81 1.92 1.88 2.00 2.24 2.52 2.82 3.12 3.02 3.15 3.36 3.29 3.04 2.45 2.09 1.89 1.86 1.92 1.96 2.02 2.15 2.39 2.44 2.51 2.48 2.47 2.41 2.41 2.19 1.93 2.14
0.03 0.03 0.02 0.04 0.07 0.07 0.13 0.33 0.48 0.71 0.82 0.70 0.64 0.67 0.67 0.94 1.25 1.38 1.47 1.59 1.85 2.19 2.55 2.80 2.99 3.05 2.99 3.14 3.27 2.98 2.74 2.31 2.17 2.15 2.04 1.98 2.08 2.13 2.25 2.41 2.49 2.41 2.32 2.32 2.40 2.30 2.13 1.91 1.91
0.02 0.02 0.02 0.02 0.05 0.08 0.13 0.42 0.77 1.01 0.94 0.75 0.73 0.78 0.94 1.08 1.11 1.21 1.33 1.57 1.94 2.27 2.63 2.96 2.95 2.92 2.87 2.99 3.05 2.88 2.60 2.32 2.21 2.23 2.03 1.88 1.86 1.91 2.01 2.08 2.24 2.29 2.28 2.22 2.17 2.12 2.10 1.97 1.79
0.03 0.02 0.02 0.02 0.03 0.06 0.16 0.42 0.86 1.08 0.94 0.75 0.76 0.92 1.10 1.09 1.03 1.15 1.29 1.50 1.70 2.02 2.32 2.59 2.77 2.81 2.75 2.71 2.67 2.64 2.44 2.19 2.06 2.00 1.87 1.83 1.85 1.77 1.77 1.86 2.04 2.09 2.02 1.99 2.11 2.24 2.18 1.99 1.79
0.03 0.02 0.03 0.05 0.08 0.15 0.21 0.35 0.72 0.99 0.90 0.73 0.74 0.87 1.02 1.18 1.20 1.24 1.43 1.56 1.64 1.83 2.10 2.26 2.39 2.44 2.40 2.32 2.27 2.29 2.22 2.17 2.02 1.87 1.88 1.91 1.85 1.72 1.66 1.68 1.78 1.84 1.82 1.78 1.81 1.90 1.92 1.87 1.89
0.03 0.04 0.12 0.26 0.43 0.45 0.36 0.48 0.82 0.79 0.69 0.62 0.67 0.84 1.06 1.27 1.29 1.37 1.53 1.63 1.69 1.72 1.77 1.83 1.87 1.92 1.86 1.78 1.73 1.77 1.79 1.80 1.73 1.71 1.78 1.83 1.75 1.67 1.63 1.57 1.52 1.51 1.53 1.61 1.74 1.74 1.75 1.81 1.88
0.06 0.09 0.23 0.25 0.26 0.35 0.44 0.67 0.81 0.67 0.58 0.57 0.61 0.74 0.98 1.10 1.16 1.27 1.35 1.27 1.21 1.23 1.28 1.31 1.32 1.33 1.30 1.33 1.36 1.39 1.49 1.53 1.52 1.63 1.64 1.69 1.67 1.62 1.51 1.38 1.33 1.31 1.33 1.41 1.56 1.71 1.72 1.78 1.81
0.15 0.20 0.18 0.27 0.22 0.30 0.45 0.66 0.67 0.58 0.67 0.72 0.75 0.80 0.84 0.84 0.81 0.84 0.86 0.89 0.95 0.97 0.97 0.97 1.01 1.02 0.97 0.96 1.06 1.13 1.20 1.27 1.29 1.39 1.42 1.41 1.40 1.34 1.30 1.27 1.25 1.21 1.23 1.26 1.29 1.41 1.42 1.49 1.54
0.17 0.26 0.36 0.52 0.52 0.46 0.43 0.68 0.89 0.91 0.93 0.89 1.00 1.19 1.03 0.74 0.62 0.59 0.59 0.63 0.67 0.70 0.75 0.79 0.88 0.97 0.95 0.88 0.88 0.90 0.95 0.99 1.09 1.16 1.18 1.21 1.25 1.22 1.16 1.17 1.17 1.11 1.08 1.09 1.11 1.15 1.21 1.18 1.22
0.25 0.32 0.42 0.53 0.56 0.55 0.53 0.67 0.63 0.90 0.97 0.97 0.99 1.00 0.83 0.54 0.38 0.33 0.34 0.38 0.46 0.59 0.67 0.69 0.80 0.88 0.84 0.74 0.73 0.77 0.79 0.83 0.88 0.95 0.96 1.02 1.08 1.15 1.16 1.12 1.08 0.99 0.92 0.90 0.91 0.93 1.02 1.03 1.02
0.20 0.32 0.43 0.54 0.54 0.55 0.58 0.70 0.49 0.64 0.70 0.70 0.73 0.57 0.44 0.31 0.23 0.21 0.21 0.25 0.33 0.42 0.47 0.55 0.64 0.74 0.76 0.72 0.72 0.75 0.78 0.78 0.78 0.80 0.79 0.81 0.86 0.89 0.91 0.91 0.97 1.00 0.98 0.93 0.91 0.87 0.85 0.90 0.91

GEFSSGP_prec_meanprecacc_108.txt.gz
Total_Precipitation_Accumulation
0.01 0.03 0.11 0.21 0.29 0.41 0.49 0.29 0.19 0.14 0.05 0.04 0.04 0.02 0.02 0.01 0.02 0.06 0.01 0.00 0.00 0.00 0.01 0.02 0.03 0.02 0.02 0.02 0.03 0.05 0.04 0.03 0.03 0.05 0.05 0.04 0.03 0.03 0.03 0.04 0.10 0.12 0.10 0.07 0.04 0.03 0.03 0.04 0.04
0.01 0.03 0.12 0.17 0.31 0.66 0.52 0.25 0.17 0.17 0.04 0.03 0.05 0.03 0.02 0.01 0.00 0.01 0.00 0.00 0.00 0.00 0.00 0.01 0.02 0.02 0.02 0.01 0.02 0.03 0.04 0.05 0.06 0.08 0.06 0.05 0.05 0.04 0.04 0.04 0.07 0.10 0.08 0.07 0.04 0.02 0.02 0.02 0.02
0.02 0.04 0.09 0.12 0.35 0.59 0.39 0.23 0.15 0.09 0.04 0.04 0.03 0.03 0.01 0.01 0.00 0.00 0.00 0.00 0.00 0.00 0.00 0.02 0.02 0.02 0.01 0.01 0.02 0.03 0.04 0.06 0.08 0.09 0.08 0.08 0.07 0.06 0.06 0.06 0.07 0.07 0.05 0.05 0.05 0.04 0.03 0.02 0.01
0.01 0.04 0.07 0.11 0.20 0.23 0.22 0.20 0.09 0.10 0.09 0.05 0.04 0.04 0.02 0.01 0.00 0.00 0.00 0.00 0.00 0.00 0.00 0.02 0.02 0.02 0.02 0.02 0.02 0.03 0.04 0.05 0.07 0.06 0.06 0.06 0.06 0.08 0.08 0.07 0.09 0.10 0.09 0.06 0.07 0.07 0.07 0.05 0.03
0.00 0.02 0.04 0.08 0.16 0.14 0.14 0.17 0.12 0.15 0.11 0.06 0.06 0.08 0.04 0.01 0.01 0.00 0.00 0.00 0.00 0.00 0.01 0.02 0.02 0.02 0.02 0.02 0.02 0.03 0.03 0.04 0.05 0.05 0.04 0.04 0.04 0.06 0.06 0.07 0.07 0.08 0.11 0.10 0.10 0.10 0.08 0.09 0.08
0.00 0.01 0.03 0.08 0.10 0.10 0.11 0.15 0.19 0.25 0.20 0.10 0.09 0.17 0.10 0.02 0.01 0.01 0.00 0.00 0.00 0.00 0.01 0.02 0.03 0.02 0.02 0.02 0.02 0.03 0.03 0.04 0.04 0.04 0.03 0.02 0.03 0.04 0.05 0.06 0.05 0.04 0.05 0.06 0.09 0.13 0.11 0.09 0.13
0.00 0.01 0.02 0.05 0.05 0.07 0.09 0.11 0.19 0.32 0.35 0.23 0.18 0.17 0.07 0.02 0.01 0.01 0.01 0.01 0.01 0.01 0.01 0.02 0.02 0.03 0.03 0.03 0.03 0.03 0.03 0.04 0.04 0.03 0.03 0.03 0.02 0.03 0.03 0.03 0.03 0.03 0.03 0.05 0.06 0.07 0.08 0.08 0.12
0.00 0.00 0.01 0.02 0.02 0.04 0.06 0.09 0.13 0.20 0.34 0.27 0.24 0.11 0.04 0.02 0.02 0.01 0.02 0.03 0.03 0.03 0.02 0.02 0.02 0.03 0.03 0.03 0.03 0.04 0.04 0.04 0.04 0.05 0.05 0.05 0.04 0.03 0.03 0.04 0.04 0.04 0.05 0.05 0.07 0.09 0.09 0.11 0.12
0.00 0.00 0.01 0.01 0.02 0.03 0.05 0.08 0.11 0.20 0.24 0.17 0.22 0.18 0.07 0.03 0.03 0.03 0.04 0.06 0.07 0.07 0.05 0.04 0.03 0.03 0.03 0.03 0.03 0.04 0.05 0.06 0.06 0.08 0.09 0.08 0.06 0.07 0.10 0.09 0.12 0.14 0.18 0.20 0.23 0.27 0.28 0.27 0.20
0.00 0.00 0.00 0.00 0.01 0.02 0.04 0.06 0.07 0.14 0.21 0.19 0.16 0.19 0.11 0.06 0.06 0.05 0.06 0.07 0.13 0.10 0.08 0.07 0.05 0.04 0.04 0.05 0.05 0.07 0.07 0.09 0.11 0.17 0.18 0.17 0.18 0.17 0.12 0.15 0.26 0.42 0.55 0.59 0.71 0.83 0.68 0.53 0.53
0.00 0.00 0.00 0.00 0.00 0.01 0.02 0.03 0.04 0.06 0.12 0.15 0.14 0.21 0.16 0.09 0.05 0.07 0.10 0.17 0.18 0.17 0.15 0.13 0.10 0.08 0.10 0.11 0.14 0.16 0.15 0.21 0.25 0.30 0.35 0.35 0.30 0.25 0.20 0.25 0.43 0.66 0.76 0.77 1.10 1.27 0.90 0.95 1.18
0.00 0.00 0.00 0.00 0.00 0.00 0.00 0.01 0.02 0.06 0.14 0.21 0.20 0.36 0.28 0.08 0.08 0.12 0.16 0.27 0.34 0.39 0.32 0.30 0.28 0.28 0.28 0.28 0.26 0.26 0.28 0.33 0.39 0.42 0.49 0.58 0.62 0.51 0.48 0.54 0.64 0.81 0.89 1.09 1.22 1.39 1.25 1.33 1.32
0.00 0.00 0.00 0.00 0.00 0.00 0.00 0.00 0.01 0.08 0.19 0.28 0.34 0.33 0.35 0.20 0.18 0.18 0.25 0.38 0.55 0.60 0.49 0.47 0.45 0.45 0.46 0.53 0.57 0.56 0.57 0.61 0.65 0.71 0.78 0.86 0.98 0.94 0.92 0.86 0.93 0.90 1.05 1.24 1.48 1.44 1.66 1.70 1.55
0.00 0.00 0.00 0.00 0.00 0.00 0.00 0.01 0.02 0.08 0.15 0.22 0.35 0.47 0.40 0.30 0.30 0.25 0.28 0.49 0.71 0.69 0.60 0.64 0.65 0.75 0.86 0.86 0.91 1.00 1.07 1.09 1.10 1.09 1.12 1.18 1.32 1.47 1.36 1.18 1.21 1.13 1.24 1.52 1.73 1.70 1.99 1.88 1.80
0.00 0.00 0.00 0.00 0.00 0.00 0.00 0.02 0.05 0.11 0.17 0.26 0.31 0.42 0.45 0.40 0.32 0.26 0.32 0.46 0.62 0.64 0.66 0.82 1.07 1.25 1.34 1.38 1.45 1.45 1.50 1.45 1.41 1.59 1.73 1.79 1.79 1.81 1.67 1.46 1.37 1.46 1.60 1.79 1.83 1.88 2.07 1.89 1.82
0.00 0.00 0.00 0.00 0.01 0.01 0.01 0.05 0.11 0.25 0.22 0.25 0.31 0.44 0.54 0.53 0.43 0.41 0.45 0.52 0.65 0.76 0.87 1.10 1.38 1.68 1.85 1.88 1.90 1.94 1.89 1.81 1.91 2.01 2.07 2.07 1.99 1.93 1.97 1.71 1.52 1.77 1.90 2.02 2.10 2.07 2.07 2.02 1.93
0.00 0.00 0.00 0.01 0.01 0.01 0.02 0.06 0.12 0.28 0.30 0.34 0.42 0.45 0.52 0.53 0.54 0.57 0.62 0.72 0.93 1.20 1.43 1.67 1.74 1.84 2.03 2.24 2.36 2.22 2.13 2.03 2.00 2.02 2.01 1.99 1.97 1.98 2.18 1.95 1.88 2.04 2.21 2.14 2.01 2.23 2.30 2.13 2.02
0.00 0.01 0.01 0.01 0.02 0.02 0.03 0.09 0.19 0.32 0.40 0.50 0.54 0.59 0.68 0.74 0.88 0.98 1.08 1.22 1.36 1.69 1.95 1.99 1.97 2.18 2.66 2.99 2.90 2.62 2.28 2.09 2.00 1.91 1.84 1.88 2.01 2.10 2.33 2.10 2.11 2.28 2.37 2.36 2.36 2.40 2.36 2.21 2.19
0.01 0.02 0.02 0.02 0.05 0.06 0.09 0.17 0.36 0.52 0.58 0.62 0.80 1.02 1.24 1.37 1.44 1.54 1.69 1.85 1.93 1.97 2.10 2.20 2.48 2.87 3.07 3.05 3.03 2.98 2.66 2.37 2.05 1.82 1.81 1.90 1.93 2.08 2.32 2.06 2.33 2.46 2.40 2.43 2.44 2.55 2.41 2.24 2.37
0.03 0.04 0.03 0.03 0.06 0.11 0.18 0.27 0.44 0.68 0.73 0.67 0.67 0.78 0.96 1.33 1.56 1.71 1.86 1.96 1.92 2.04 2.27 2.54 2.83 3.14 3.03 3.17 3.37 3.30 3.06 2.48 2.11 1.92 1.89 1.95 1.99 2.04 2.17 2.41 2.46 2.53 2.50 2.49 2.44 2.44 2.23 2.02 2.26
0.03 0.04 0.03 0.05 0.09 0.09 0.16 0.36 0.52 0.75 0.85 0.74 0.70 0.72 0.72 0.98 1.29 1.42 1.51 1.62 1.86 2.20 2.56 2.81 2.99 3.05 2.99 3.15 3.27 2.99 2.75 2.32 2.19 2.17 2.06 2.01 2.11 2.16 2.29 2.44 2.51 2.42 2.34 2.34 2.42 2.32 2.17 1.98 2.02
0.03 0.03 0.03 0.04 0.07 0.10 0.16 0.45 0.79 1.03 0.96 0.78 0.77 0.82 0.98 1.11 1.14 1.24 1.35 1.58 1.94 2.28 2.64 2.96 2.95 2.92 2.88 2.99 3.05 2.88 2.60 2.32 2.22 2.24 2.03 1.89 1.87 1.93 2.04 2.11 2.26 2.31 2.30 2.24 2.20 2.15 2.14 2.03 1.89
0.04 0.03 0.03 0.05 0.06 0.08 0.18 0.43 0.87 1.09 0.96 0.77 0.78 0.94 1.12 1.11 1.05 1.17 1.30 1.51 1.71 2.02 2.32 2.59 2.78 2.82 2.75 2.72 2.68 2.64 2.44 2.19 2.06 2.00 1.88 1.83 1.86 1.79 1.78 1.88 2.06 2.12 2.04 2.01 2.14 2.26 2.21 2.04 1.87
0.04 0.04 0.05 0.08 0.10 0.17 0.22 0.36 0.73 0.99 0.91 0.74 0.75 0.88 1.03 1.19 1.21 1.24 1.44 1.56 1.64 1.83 2.10 2.27 2.40 2.44 2.40 2.32 2.28 2.29 2.22 2.17 2.02 1.87 1.88 1.92 1.85 1.73 1.67 1.69 1.80 1.86 1.84 1.80 1.83 1.92 1.94 1.90 1.94
0.04 0.05 0.13 0.27 0.44 0.45 0.36 0.48 0.82 0.80 0.69 0.63 0.67 0.84 1.06 1.27 1.29 1.38 1.54 1.63 1.69 1.72 1.77 1.83 1.87 1.92 1.86 1.78 1.74 1.77 1.79 1.81 1.74 1.72 1.78 1.83 1.76 1.67 1.64 1.58 1.53 1.53 1.55 1.63 1.76 1.76 1.77 1.83 1.91
0.07 0.10 0.24 0.25 0.27 0.35 0.44 0.68 0.81 0.67 0.58 0.58 0.61 0.74 0.98 1.10 1.16 1.27 1.35 1.27 1.21 1.23 1.28 1.31 1.32 1.33 1.30 1.33 1.36 1.39 1.49 1.53 1.52 1.63 1.65 1.69 1.67 1.62 1.51 1.38 1.33 1.32 1.34 1.42 1.57 1.72 1.72 1.79 1.82
0.16 0.20 0.18 0.27 0.23 0.31 0.46 0.66 0.68 0.58 0.68 0.72 0.75 0.80 0.84 0.84 0.81 0.84 0.86 0.89 0.95 0.97 0.97 0.97 1.01 1.02 0.97 0.96 1.06 1.13 1.20 1.27 1.29 1.39 1.42 1.41 1.40 1.34 1.30 1.27 1.25 1.21 1.23 1.27 1.29 1.42 1.43 1.50 1.55
0.17 0.27 0.37 0.52 0.52 0.46 0.43 0.68 0.89 0.91 0.93 0.89 1.00 1.19 1.03 0.74 0.62 0.59 0.59 0.63 0.67 0.70 0.75 0.79 0.88 0.97 0.95 0.88 0.88 0.90 0.95 0.99 1.09 1.16 1.18 1.22 1.25 1.22 1.16 1.17 1.17 1.11 1.09 1.10 1.12 1.16 1.22 1.19 1.24
0.25 0.32 0.42 0.53 0.56 0.55 0.53 0.68 0.63 0.90 0.97 0.97 0.99 1.00 0.83 0.54 0.38 0.33 0.34 0.38 0.46 0.59 0.67 0.69 0.80 0.88 0.84 0.74 0.73 0.77 0.79 0.83 0.88 0.95 0.96 1.02 1.08 1.15 1.16 1.13 1.08 0.99 0.92 0.91 0.92 0.94 1.04 1.04 1.03
0.20 0.32 0.43 0.54 0.54 0.55 0.58 0.70 0.49 0.64 0.70 0.70 0.73 0.57 0.44 0.31 0.23 0.21 0.21 0.25 0.33 0.42 0.47 0.55 0.64 0.74 0.76 0.72 0.72 0.75 0.78 0.78 0.78 0.80 0.79 0.81 0.86 0.89 0.91 0.91 0.97 1.00 0.98 0.94 0.92 0.88 0.87 0.91 0.92

GEFSSGP_prec_meanprecacc_114.txt.gz
Total_Precipitation_Accumulation
0.01 0.03 0.12 0.21 0.30 0.42 0.49 0.30 0.19 0.14 0.06 0.05 0.04 0.02 0.02 0.02 0.02 0.07 0.01 0.00 0.00 0.00 0.01 0.03 0.03 0.02 0.02 0.02 0.04 0.06 0.05 0.04 0.04 0.05 0.06 0.04 0.04 0.03 0.03 0.04 0.10 0.12 0.10 0.07 0.04 0.04 0.05 0.05 0.05
0.01 0.04 0.12 0.17 0.32 0.68 0.53 0.25 0.18 0.17 0.04 0.04 0.05 0.03 0.02 0.01 0.00 0.01 0.00 0.00 0.00 0.00 0.00 0.02 0.02 0.02 0.02 0.02 0.02 0.04 0.05 0.06 0.07 0.08 0.06 0.06 0.05 0.05 0.04 0.05 0.07 0.10 0.09 0.08 0.04 0.03 0.03 0.03 0.02
0.02 0.04 0.10 0.13 0.36 0.60 0.40 0.23 0.15 0.09 0.04 0.04 0.04 0.03 0.02 0.01 0.00 0.00 0.00 0.00 0.00 0.00 0.00 0.02 0.03 0.02 0.02 0.02 0.02 0.04 0.05 0.06 0.09 0.09 0.08 0.08 0.08 0.07 0.06 0.06 0.07 0.08 0.05 0.05 0.05 0.04 0.03 0.02 0.01
0.02 0.04 0.08 0.11 0.21 0.24 0.22 0.20 0.09 0.10 0.09 0.06 0.04 0.04 0.02 0.01 0.01 0.01 0.00 0.00 0.00 0.00 0.00 0.02 0.03 0.02 0.02 0.02 0.02 0.03 0.04 0.05 0.07 0.07 0.06 0.07 0.07 0.08 0.08 0.07 0.09 0.11 0.10 0.07 0.08 0.07 0.08 0.06 0.03
0.00 0.02 0.05 0.09 0.17 0.14 0.15 0.18 0.12 0.16 0.11 0.06 0.07 0.08 0.04 0.01 0.01 0.00 0.00 0.00 0.00 0.01 0.01 0.03 0.03 0.03 0.02 0.02 0.03 0.03 0.04 0.05 0.05 0.05 0.04 0.04 0.05 0.06 0.07 0.07 0.08 0.09 0.11 0.11 0.11 0.11 0.09 0.10 0.09
0.00 0.01 0.04 0.09 0.11 0.10 0.11 0.15 0.19 0.25 0.20 0.10 0.10 0.18 0.10 0.02 0.01 0.01 0.01 0.00 0.01 0.01 0.01 0.03 0.04 0.04 0.03 0.03 0.03 0.03 0.04 0.04 0.04 0.04 0.03 0.03 0.03 0.04 0.06 0.07 0.06 0.05 0.06 0.07 0.10 0.14 0.12 0.10 0.13
0.00 0.01 0.03 0.06 0.06 0.07 0.09 0.11 0.19 0.32 0.35 0.24 0.19 0.18 0.07 0.02 0.01 0.01 0.01 0.01 0.02 0.01 0.02 0.04 0.05 0.05 0.05 0.04 0.04 0.04 0.04 0.04 0.04 0.04 0.04 0.03 0.03 0.04 0.04 0.05 0.04 0.04 0.04 0.05 0.07 0.08 0.09 0.09 0.12
0.00 0.01 0.01 0.02 0.03 0.04 0.06 0.09 0.13 0.20 0.34 0.27 0.24 0.11 0.04 0.02 0.02 0.02 0.03 0.05 0.05 0.05 0.04 0.05 0.06 0.07 0.06 0.06 0.06 0.07 0.07 0.07 0.06 0.06 0.07 0.06 0.05 0.05 0.06 0.06 0.06 0.06 0.07 0.07 0.09 0.10 0.11 0.13 0.13
0.00 0.00 0.01 0.01 0.02 0.03 0.05 0.08 0.12 0.20 0.24 0.18 0.22 0.19 0.08 0.03 0.04 0.03 0.06 0.09 0.10 0.12 0.11 0.09 0.08 0.09 0.08 0.08 0.08 0.10 0.11 0.11 0.11 0.12 0.12 0.11 0.09 0.10 0.14 0.13 0.15 0.17 0.21 0.23 0.26 0.29 0.30 0.30 0.22
0.00 0.00 0.00 0.00 0.01 0.02 0.04 0.06 0.07 0.14 0.21 0.19 0.16 0.19 0.11 0.06 0.07 0.06 0.09 0.10 0.18 0.18 0.16 0.13 0.11 0.11 0.10 0.11 0.13 0.17 0.17 0.19 0.19 0.25 0.26 0.24 0.25 0.23 0.17 0.20 0.30 0.46 0.59 0.63 0.76 0.88 0.73 0.57 0.56
0.00 0.00 0.00 0.00 0.00 0.01 0.02 0.03 0.04 0.07 0.12 0.15 0.14 0.21 0.16 0.09 0.07 0.09 0.13 0.21 0.25 0.28 0.23 0.20 0.15 0.15 0.17 0.20 0.22 0.26 0.26 0.32 0.35 0.41 0.46 0.47 0.41 0.33 0.28 0.33 0.50 0.73 0.82 0.84 1.18 1.35 0.97 1.03 1.26
0.00 0.00 0.00 0.00 0.00 0.00 0.01 0.01 0.02 0.06 0.15 0.22 0.20 0.36 0.29 0.10 0.10 0.14 0.18 0.30 0.39 0.46 0.40 0.37 0.34 0.34 0.35 0.36 0.36 0.36 0.38 0.44 0.52 0.57 0.63 0.71 0.74 0.62 0.59 0.65 0.73 0.88 0.95 1.18 1.34 1.52 1.37 1.46 1.43
0.00 0.00 0.00 0.00 0.00 0.00 0.00 0.01 0.01 0.08 0.20 0.29 0.35 0.34 0.36 0.23 0.21 0.21 0.30 0.44 0.60 0.65 0.54 0.53 0.51 0.51 0.53 0.63 0.72 0.69 0.68 0.74 0.79 0.87 0.93 1.00 1.12 1.07 1.07 0.99 1.03 0.98 1.13 1.32 1.60 1.58 1.82 1.87 1.69
0.00 0.00 0.00 0.00 0.00 0.00 0.00 0.01 0.03 0.09 0.16 0.23 0.37 0.50 0.43 0.33 0.33 0.28 0.32 0.55 0.78 0.77 0.68 0.71 0.74 0.85 0.99 1.01 1.07 1.17 1.22 1.23 1.25 1.26 1.29 1.34 1.49 1.68 1.60 1.37 1.33 1.22 1.32 1.61 1.85 1.86 2.16 2.05 1.98
0.00 0.00 0.00 0.00 0.00 0.01 0.01 0.03 0.06 0.12 0.18 0.28 0.33 0.45 0.48 0.43 0.35 0.29 0.36 0.51 0.70 0.73 0.76 0.96 1.22 1.38 1.50 1.55 1.63 1.66 1.70 1.65 1.64 1.81 1.92 1.97 1.97 2.00 1.86 1.66 1.52 1.61 1.75 1.91 1.95 2.03 2.26 2.05 1.99
0.00 0.00 0.00 0.01 0.01 0.01 0.02 0.07 0.13 0.27 0.25 0.28 0.34 0.47 0.57 0.55 0.47 0.45 0.49 0.56 0.71 0.84 0.97 1.21 1.51 1.80 1.98 2.04 2.10 2.13 2.04 1.96 2.10 2.15 2.20 2.23 2.15 2.08 2.11 1.84 1.66 1.90 2.03 2.14 2.22 2.22 2.24 2.18 2.10
0.00 0.00 0.01 0.01 0.01 0.01 0.03 0.08 0.15 0.31 0.35 0.39 0.45 0.48 0.55 0.56 0.58 0.62 0.67 0.76 0.98 1.27 1.53 1.79 1.85 1.95 2.13 2.34 2.46 2.30 2.21 2.12 2.11 2.10 2.09 2.07 2.05 2.07 2.28 2.05 2.00 2.16 2.34 2.26 2.10 2.34 2.42 2.27 2.18
0.00 0.01 0.01 0.02 0.02 0.03 0.05 0.11 0.21 0.35 0.44 0.53 0.57 0.62 0.71 0.76 0.90 1.00 1.10 1.25 1.40 1.73 2.00 2.05 2.04 2.25 2.73 3.05 2.96 2.68 2.32 2.13 2.04 1.96 1.89 1.93 2.06 2.15 2.39 2.17 2.19 2.36 2.47 2.45 2.44 2.48 2.45 2.31 2.30
0.01 0.02 0.02 0.03 0.05 0.07 0.10 0.18 0.39 0.55 0.62 0.66 0.83 1.05 1.26 1.39 1.45 1.55 1.70 1.87 1.96 1.99 2.12 2.23 2.52 2.91 3.10 3.07 3.05 3.01 2.69 2.40 2.08 1.85 1.85 1.93 1.96 2.11 2.37 2.11 2.38 2.51 2.45 2.49 2.50 2.61 2.47 2.30 2.46
0.03 0.04 0.03 0.04 0.07 0.13 0.20 0.28 0.46 0.70 0.76 0.72 0.71 0.82 0.98 1.35 1.57 1.72 1.87 1.97 1.93 2.04 2.28 2.56 2.85 3.15 3.04 3.18 3.38 3.31 3.07 2.49 2.13 1.94 1.90 1.96 2.00 2.07 2.21 2.46 2.51 2.57 2.54 2.53 2.47 2.48 2.27 2.06 2.32
0.04 0.04 0.03 0.06 0.11 0.11 0.18 0.39 0.54 0.76 0.88 0.78 0.74 0.76 0.75 1.00 1.30 1.43 1.51 1.63 1.87 2.20 2.56 2.81 3.00 3.05 3.00 3.15 3.28 3.00 2.76 2.33 2.20 2.18 2.07 2.03 2.14 2.19 2.32 2.49 2.56 2.47 2.38 2.38 2.45 2.34 2.20 2.01 2.07
0.04 0.04 0.03 0.05 0.09 0.12 0.17 0.49 0.81 1.04 0.98 0.80 0.79 0.84 1.00 1.13 1.15 1.25 1.36 1.59 1.95 2.28 2.65 2.97 2.96 2.93 2.88 2.99 3.06 2.90 2.61 2.33 2.22 2.24 2.04 1.90 1.89 1.95 2.06 2.13 2.28 2.33 2.31 2.26 2.22 2.18 2.17 2.07 1.93
0.04 0.03 0.03 0.05 0.06 0.09 0.19 0.46 0.89 1.10 0.97 0.79 0.79 0.95 1.13 1.12 1.06 1.17 1.31 1.51 1.71 2.02 2.33 2.59 2.78 2.82 2.75 2.72 2.68 2.65 2.45 2.20 2.06 2.00 1.88 1.84 1.86 1.79 1.79 1.89 2.07 2.13 2.06 2.03 2.16 2.30 2.26 2.08 1.92
0.04 0.04 0.05 0.08 0.11 0.19 0.23 0.37 0.75 1.00 0.92 0.75 0.76 0.89 1.03 1.19 1.21 1.25 1.44 1.56 1.64 1.83 2.10 2.27 2.40 2.45 2.40 2.32 2.28 2.30 2.23 2.18 2.03 1.87 1.88 1.92 1.85 1.73 1.67 1.70 1.81 1.88 1.86 1.83 1.87 1.96 1.98 1.94 1.99
0.04 0.05 0.14 0.29 0.46 0.47 0.37 0.49 0.83 0.80 0.69 0.63 0.67 0.84 1.06 1.27 1.29 1.38 1.54 1.63 1.69 1.72 1.77 1.83 1.87 1.92 1.86 1.78 1.74 1.77 1.79 1.81 1.74 1.72 1.79 1.83 1.76 1.68 1.64 1.58 1.53 1.54 1.56 1.65 1.79 1.81 1.81 1.87 1.95
0.07 0.10 0.25 0.27 0.28 0.36 0.44 0.69 0.82 0.67 0.58 0.58 0.61 0.74 0.98 1.10 1.16 1.27 1.35 1.27 1.21 1.23 1.28 1.31 1.32 1.33 1.30 1.33 1.36 1.39 1.49 1.53 1.52 1.64 1.65 1.69 1.67 1.62 1.51 1.38 1.34 1.32 1.35 1.43 1.59 1.75 1.76 1.83 1.86
0.16 0.20 0.18 0.27 0.23 0.31 0.46 0.66 0.68 0.58 0.68 0.72 0.75 0.80 0.84 0.84 0.81 0.84 0.86 0.89 0.95 0.97 0.97 0.97 1.01 1.02 0.97 0.96 1.06 1.14 1.20 1.27 1.29 1.40 1.43 1.41 1.40 1.34 1.30 1.27 1.25 1.21 1.24 1.28 1.31 1.43 1.45 1.53 1.58
0.17 0.27 0.37 0.52 0.53 0.47 0.43 0.68 0.89 0.91 0.93 0.89 1.00 1.19 1.03 0.74 0.62 0.59 0.59 0.63 0.67 0.70 0.75 0.79 0.88 0.97 0.95 0.88 0.88 0.90 0.95 0.99 1.10 1.16 1.18 1.22 1.25 1.23 1.17 1.17 1.17 1.12 1.10 1.11 1.14 1.18 1.23 1.21 1.26
0.25 0.32 0.42 0.53 0.56 0.55 0.53 0.68 0.63 0.90 0.97 0.97 0.99 1.00 0.83 0.54 0.38 0.33 0.34 0.38 0.46 0.59 0.67 0.69 0.80 0.88 0.84 0.74 0.73 0.77 0.79 0.83 0.88 0.95 0.97 1.02 1.08 1.15 1.16 1.13 1.09 0.99 0.93 0.92 0.94 0.96 1.05 1.06 1.05
0.20 0.32 0.43 0.54 0.54 0.55 0.58 0.70 0.49 0.64 0.70 0.70 0.73 0.57 0.44 0.31 0.23 0.21 0.21 0.25 0.33 0.42 0.47 0.55 0.64 0.74 0.76 0.72 0.72 0.75 0.78 0.78 0.78 0.80 0.80 0.81 0.87 0.90 0.91 0.92 0.98 1.00 0.99 0.95 0.93 0.90 0.88 0.93 0.95

GEFSSGP_prec_meanprecacc_120.txt.gz
Total_Precipitation_Accumulation
0.01 0.04 0.12 0.22 0.33 0.51 0.65 0.38 0.22 0.16 0.07 0.05 0.04 0.03 0.03 0.02 0.04 0.15 0.04 0.00 0.00 0.00 0.01 0.03 0.03 0.02 0.02 0.03 0.05 0.08 0.08 0.06 0.06 0.07 0.07 0.05 0.05 0.04 0.04 0.05 0.11 0.13 0.11 0.08 0.06 0.06 0.07 0.08 0.08
0.01 0.04 0.13 0.18 0.37 0.80 0.66 0.30 0.20 0.19 0.05 0.04 0.05 0.04 0.03 0.03 0.01 0.01 0.01 0.00 0.00 0.00 0.00 0.02 0.03 0.02 0.02 0.02 0.03 0.06 0.07 0.08 0.09 0.10 0.08 0.07 0.07 0.06 0.05 0.06 0.09 0.12 0.10 0.08 0.04 0.04 0.04 0.05 0.03
0.02 0.04 0.10 0.15 0.39 0.66 0.44 0.24 0.15 0.09 0.04 0.04 0.04 0.04 0.02 0.01 0.00 0.00 0.00 0.00 0.00 0.00 0.00 0.02 0.03 0.02 0.02 0.02 0.03 0.05 0.07 0.08 0.11 0.11 0.10 0.10 0.08 0.07 0.07 0.07 0.08 0.09 0.06 0.06 0.06 0.06 0.05 0.04 0.03
0.02 0.05 0.09 0.13 0.25 0.26 0.23 0.20 0.10 0.10 0.09 0.06 0.05 0.05 0.03 0.01 0.01 0.01 0.00 0.00 0.00 0.00 0.01 0.03 0.03 0.02 0.02 0.02 0.03 0.04 0.06 0.07 0.09 0.08 0.08 0.08 0.08 0.09 0.09 0.08 0.10 0.12 0.11 0.08 0.09 0.09 0.09 0.07 0.04
0.01 0.03 0.07 0.12 0.21 0.17 0.15 0.18 0.13 0.17 0.12 0.06 0.07 0.11 0.07 0.02 0.01 0.01 0.00 0.00 0.01 0.01 0.01 0.03 0.04 0.03 0.03 0.03 0.03 0.04 0.05 0.06 0.07 0.07 0.06 0.06 0.07 0.07 0.08 0.08 0.09 0.10 0.13 0.12 0.13 0.12 0.10 0.10 0.09
0.01 0.02 0.07 0.12 0.14 0.13 0.13 0.16 0.20 0.25 0.21 0.11 0.12 0.22 0.15 0.03 0.01 0.01 0.01 0.00 0.01 0.01 0.02 0.04 0.05 0.04 0.04 0.04 0.04 0.04 0.04 0.05 0.06 0.06 0.05 0.04 0.04 0.05 0.07 0.09 0.08 0.07 0.08 0.09 0.12 0.15 0.13 0.10 0.14
0.01 0.01 0.04 0.08 0.09 0.11 0.11 0.12 0.20 0.32 0.35 0.26 0.22 0.24 0.14 0.07 0.02 0.01 0.01 0.02 0.02 0.01 0.02 0.05 0.06 0.06 0.06 0.05 0.05 0.05 0.05 0.06 0.06 0.05 0.05 0.04 0.04 0.05 0.06 0.07 0.07 0.07 0.06 0.07 0.08 0.10 0.11 0.10 0.13
0.00 0.01 0.01 0.03 0.04 0.06 0.08 0.10 0.14 0.22 0.38 0.31 0.28 0.21 0.31 0.20 0.05 0.02 0.03 0.05 0.05 0.05 0.05 0.06 0.07 0.09 0.09 0.08 0.09 0.09 0.09 0.09 0.09 0.08 0.08 0.08 0.07 0.06 0.08 0.09 0.09 0.09 0.09 0.08 0.10 0.11 0.12 0.13 0.14
0.00 0.00 0.01 0.02 0.03 0.04 0.06 0.09 0.13 0.21 0.26 0.19 0.24 0.22 0.19 0.13 0.06 0.04 0.07 0.10 0.12 0.13 0.12 0.12 0.15 0.13 0.12 0.13 0.13 0.13 0.14 0.15 0.14 0.15 0.15 0.14 0.12 0.16 0.21 0.17 0.19 0.21 0.24 0.25 0.27 0.31 0.31 0.31 0.23
0.00 0.00 0.01 0.02 0.03 0.03 0.04 0.06 0.08 0.17 0.34 0.31 0.21 0.21 0.13 0.09 0.09 0.09 0.10 0.12 0.21 0.22 0.19 0.16 0.17 0.15 0.14 0.16 0.21 0.24 0.23 0.26 0.26 0.33 0.34 0.32 0.35 0.34 0.26 0.30 0.38 0.52 0.63 0.66 0.79 0.91 0.74 0.58 0.58
0.00 0.00 0.01 0.02 0.03 0.02 0.02 0.03 0.07 0.14 0.33 0.36 0.29 0.27 0.21 0.14 0.11 0.13 0.15 0.22 0.28 0.32 0.29 0.25 0.21 0.21 0.23 0.27 0.31 0.37 0.37 0.45 0.49 0.57 0.63 0.63 0.57 0.46 0.39 0.47 0.64 0.82 0.89 0.90 1.27 1.41 1.03 1.09 1.32
0.00 0.00 0.00 0.01 0.02 0.01 0.01 0.02 0.08 0.14 0.28 0.35 0.26 0.41 0.35 0.19 0.19 0.20 0.24 0.34 0.42 0.51 0.45 0.42 0.40 0.41 0.42 0.43 0.46 0.48 0.51 0.59 0.68 0.76 0.82 0.90 0.92 0.80 0.74 0.81 0.91 1.05 1.11 1.34 1.51 1.69 1.53 1.59 1.51
0.00 0.00 0.00 0.00 0.01 0.00 0.01 0.02 0.03 0.10 0.23 0.33 0.39 0.39 0.43 0.32 0.30 0.34 0.45 0.51 0.67 0.75 0.62 0.59 0.58 0.59 0.62 0.73 0.84 0.82 0.82 0.89 0.94 1.05 1.13 1.20 1.31 1.27 1.26 1.19 1.24 1.16 1.31 1.50 1.79 1.77 2.03 2.07 1.85
0.00 0.00 0.00 0.01 0.01 0.01 0.05 0.06 0.05 0.11 0.23 0.28 0.41 0.55 0.48 0.41 0.42 0.36 0.42 0.62 0.86 0.87 0.77 0.80 0.82 0.93 1.07 1.12 1.19 1.31 1.36 1.37 1.40 1.42 1.48 1.57 1.72 1.87 1.81 1.61 1.56 1.44 1.51 1.79 2.05 2.07 2.41 2.26 2.14
0.00 0.01 0.02 0.04 0.05 0.05 0.09 0.17 0.14 0.16 0.22 0.32 0.36 0.48 0.53 0.49 0.43 0.42 0.46 0.59 0.80 0.85 0.89 1.09 1.33 1.47 1.60 1.70 1.82 1.83 1.86 1.80 1.81 1.98 2.07 2.12 2.12 2.14 2.01 1.85 1.75 1.84 1.96 2.10 2.12 2.21 2.46 2.20 2.12
0.00 0.04 0.07 0.09 0.08 0.07 0.19 0.41 0.30 0.33 0.28 0.31 0.37 0.49 0.60 0.59 0.53 0.54 0.57 0.64 0.78 0.93 1.06 1.29 1.59 1.90 2.08 2.16 2.28 2.31 2.26 2.18 2.27 2.30 2.34 2.37 2.30 2.21 2.24 1.99 1.82 2.08 2.20 2.31 2.39 2.39 2.41 2.33 2.24
0.01 0.04 0.08 0.09 0.05 0.06 0.17 0.29 0.25 0.36 0.40 0.42 0.47 0.50 0.57 0.59 0.62 0.65 0.70 0.80 1.01 1.30 1.55 1.81 1.90 2.03 2.20 2.44 2.59 2.42 2.33 2.24 2.22 2.20 2.20 2.18 2.18 2.20 2.42 2.19 2.16 2.34 2.50 2.41 2.24 2.53 2.61 2.46 2.37
0.01 0.03 0.06 0.06 0.06 0.07 0.16 0.25 0.29 0.38 0.48 0.56 0.60 0.65 0.75 0.80 0.93 1.02 1.12 1.27 1.42 1.75 2.02 2.07 2.09 2.37 2.78 3.09 3.03 2.76 2.42 2.23 2.13 2.05 1.99 2.03 2.16 2.23 2.47 2.25 2.29 2.48 2.58 2.58 2.57 2.63 2.62 2.48 2.50
0.01 0.04 0.06 0.06 0.08 0.14 0.21 0.25 0.42 0.57 0.65 0.71 0.87 1.10 1.29 1.42 1.49 1.58 1.73 1.90 1.98 2.00 2.14 2.25 2.54 2.93 3.13 3.10 3.09 3.04 2.73 2.45 2.13 1.90 1.90 1.98 2.02 2.17 2.42 2.16 2.44 2.58 2.55 2.60 2.62 2.73 2.59 2.44 2.63
0.03 0.06 0.08 0.08 0.10 0.14 0.24 0.32 0.49 0.71 0.79 0.79 0.78 0.88 1.01 1.37 1.59 1.74 1.89 1.98 1.95 2.05 2.29 2.57 2.87 3.18 3.07 3.20 3.40 3.34 3.09 2.51 2.16 1.96 1.93 1.98 2.02 2.09 2.24 2.50 2.56 2.63 2.61 2.61 2.58 2.59 2.37 2.17 2.49
0.05 0.05 0.06 0.08 0.12 0.13 0.21 0.46 0.60 0.81 0.91 0.83 0.80 0.79 0.77 1.03 1.32 1.44 1.52 1.64 1.88 2.21 2.59 2.84 3.03 3.09 3.03 3.17 3.30 3.02 2.79 2.35 2.22 2.21 2.10 2.05 2.17 2.21 2.34 2.51 2.59 2.51 2.42 2.43 2.52 2.42 2.28 2.09 2.18
0.06 0.05 0.03 0.05 0.13 0.21 0.28 0.66 0.97 1.16 1.02 0.83 0.83 0.88 1.02 1.14 1.17 1.26 1.37 1.61 1.96 2.29 2.65 2.99 2.98 2.95 2.90 3.00 3.08 2.92 2.64 2.36 2.25 2.28 2.07 1.93 1.91 1.97 2.08 2.16 2.31 2.36 2.34 2.30 2.27 2.24 2.24 2.14 2.00
0.04 0.04 0.03 0.06 0.09 0.20 0.31 0.59 1.03 1.16 1.02 0.83 0.81 0.96 1.14 1.12 1.06 1.18 1.32 1.52 1.71 2.02 2.33 2.61 2.80 2.83 2.76 2.72 2.69 2.66 2.46 2.21 2.08 2.02 1.90 1.85 1.87 1.80 1.80 1.91 2.09 2.15 2.08 2.06 2.20 2.35 2.31 2.14 1.98
0.04 0.04 0.07 0.12 0.22 0.39 0.32 0.43 0.84 1.07 0.96 0.80 0.79 0.89 1.03 1.19 1.21 1.25 1.44 1.57 1.64 1.83 2.10 2.27 2.40 2.45 2.41 2.32 2.28 2.30 2.24 2.18 2.03 1.88 1.89 1.92 1.86 1.73 1.68 1.71 1.82 1.90 1.88 1.86 1.90 2.00 2.03 2.00 2.06
0.04 0.11 0.29 0.49 0.65 0.60 0.40 0.52 0.89 0.82 0.70 0.63 0.68 0.84 1.06 1.27 1.29 1.38 1.54 1.63 1.69 1.72 1.77 1.83 1.87 1.92 1.86 1.78 1.74 1.78 1.80 1.82 1.75 1.73 1.79 1.83 1.76 1.68 1.64 1.59 1.54 1.55 1.58 1.67 1.82 1.83 1.83 1.91 2.01
0.07 0.15 0.37 0.37 0.41 0.45 0.47 0.72 0.85 0.69 0.58 0.58 0.61 0.74 0.98 1.10 1.16 1.27 1.35 1.27 1.21 1.23 1.28 1.31 1.32 1.34 1.31 1.33 1.36 1.40 1.49 1.54 1.53 1.64 1.65 1.70 1.68 1.63 1.52 1.39 1.34 1.33 1.36 1.44 1.61 1.77 1.79 1.86 1.91
0.16 0.21 0.19 0.29 0.26 0.35 0.49 0.69 0.70 0.58 0.68 0.72 0.75 0.80 0.84 0.84 0.81 0.84 0.86 0.89 0.95 0.97 0.97 0.97 1.01 1.02 0.97 0.97 1.06 1.14 1.20 1.28 1.30 1.40 1.43 1.41 1.41 1.34 1.30 1.27 1.26 1.22 1.25 1.29 1.32 1.45 1.47 1.56 1.61
0.17 0.27 0.37 0.53 0.55 0.51 0.48 0.72 0.94 0.95 0.93 0.89 1.00 1.19 1.03 0.74 0.62 0.59 0.59 0.63 0.67 0.70 0.75 0.79 0.88 0.97 0.95 0.88 0.88 0.90 0.95 1.00 1.10 1.17 1.19 1.23 1.26 1.23 1.17 1.18 1.18 1.13 1.11 1.13 1.16 1.20 1.25 1.23 1.29
0.26 0.33 0.42 0.53 0.56 0.57 0.58 0.72 0.65 0.91 0.97 0.97 0.99 1.00 0.83 0.54 0.38 0.33 0.34 0.38 0.46 0.59 0.67 0.69 0.80 0.88 0.84 0.74 0.73 0.77 0.79 0.83 0.89 0.96 0.98 1.03 1.09 1.16 1.17 1.14 1.10 1.01 0.95 0.94 0.97 0.98 1.07 1.08 1.08
0.20 0.33 0.43 0.54 0.54 0.55 0.58 0.71 0.49 0.65 0.70 0.70 0.73 0.57 0.44 0.31 0.23 0.21 0.21 0.25 0.33 0.42 0.47 0.55 0.64 0.74 0.76 0.72 0.72 0.76 0.79 0.79 0.79 0.82 0.81 0.82 0.88 0.91 0.92 0.93 0.99 1.02 1.00 0.97 0.96 0.92 0.91 0.96 0.99

GEFSSGP_prec_meanprecacc_126.txt.gz
Total_Precipitation_Accumulation
0.01 0.04 0.14 0.26 0.39 0.62 0.81 0.53 0.33 0.24 0.16 0.19 0.15 0.11 0.09 0.06 0.07 0.19 0.09 0.04 0.04 0.02 0.01 0.03 0.03 0.03 0.03 0.03 0.06 0.08 0.08 0.07 0.06 0.07 0.08 0.07 0.06 0.06 0.06 0.07 0.12 0.15 0.13 0.09 0.07 0.07 0.08 0.09 0.09
0.01 0.05 0.15 0.24 0.50 1.00 0.85 0.42 0.26 0.27 0.15 0.17 0.16 0.14 0.09 0.08 0.04 0.04 0.05 0.04 0.02 0.02 0.01 0.02 0.03 0.02 0.03 0.03 0.04 0.06 0.08 0.08 0.10 0.11 0.09 0.08 0.08 0.07 0.07 0.07 0.10 0.13 0.11 0.09 0.05 0.05 0.05 0.06 0.04
0.03 0.07 0.14 0.21 0.56 0.87 0.62 0.35 0.21 0.19 0.17 0.20 0.18 0.17 0.15 0.11 0.08 0.07 0.06 0.04 0.03 0.02 0.01 0.03 0.03 0.02 0.02 0.03 0.04 0.06 0.08 0.09 0.12 0.12 0.11 0.11 0.10 0.08 0.07 0.07 0.09 0.10 0.07 0.06 0.07 0.07 0.05 0.04 0.03
0.03 0.08 0.13 0.20 0.34 0.34 0.32 0.26 0.16 0.26 0.27 0.20 0.16 0.21 0.21 0.14 0.14 0.15 0.08 0.04 0.02 0.01 0.01 0.03 0.03 0.03 0.03 0.03 0.04 0.05 0.07 0.08 0.10 0.10 0.09 0.09 0.09 0.10 0.10 0.09 0.11 0.13 0.12 0.09 0.10 0.10 0.10 0.07 0.04
0.02 0.06 0.12 0.18 0.27 0.23 0.22 0.24 0.20 0.27 0.26 0.21 0.23 0.29 0.29 0.19 0.15 0.18 0.10 0.07 0.02 0.02 0.02 0.04 0.05 0.04 0.03 0.03 0.04 0.05 0.06 0.07 0.08 0.08 0.07 0.07 0.08 0.09 0.09 0.09 0.09 0.11 0.14 0.13 0.13 0.13 0.10 0.10 0.09
0.02 0.07 0.15 0.17 0.17 0.16 0.17 0.22 0.26 0.32 0.31 0.30 0.36 0.49 0.42 0.20 0.14 0.18 0.21 0.11 0.04 0.02 0.03 0.05 0.06 0.05 0.05 0.04 0.05 0.05 0.06 0.06 0.07 0.07 0.05 0.05 0.05 0.06 0.08 0.10 0.08 0.08 0.08 0.10 0.12 0.16 0.13 0.11 0.14
0.02 0.04 0.09 0.12 0.11 0.12 0.13 0.16 0.24 0.40 0.54 0.51 0.53 0.58 0.47 0.38 0.29 0.23 0.22 0.17 0.08 0.04 0.04 0.06 0.07 0.08 0.08 0.07 0.07 0.07 0.07 0.07 0.07 0.06 0.06 0.05 0.05 0.05 0.07 0.08 0.08 0.07 0.07 0.08 0.09 0.10 0.11 0.10 0.13
0.01 0.02 0.03 0.05 0.06 0.08 0.10 0.13 0.17 0.30 0.61 0.58 0.52 0.45 0.59 0.47 0.34 0.27 0.25 0.30 0.20 0.09 0.07 0.08 0.11 0.12 0.12 0.11 0.12 0.12 0.11 0.10 0.10 0.10 0.10 0.09 0.08 0.08 0.10 0.11 0.10 0.11 0.10 0.10 0.11 0.12 0.13 0.14 0.14
0.01 0.02 0.02 0.03 0.04 0.06 0.08 0.11 0.17 0.29 0.40 0.49 0.62 0.52 0.53 0.38 0.28 0.27 0.29 0.37 0.35 0.24 0.16 0.15 0.21 0.20 0.17 0.17 0.17 0.17 0.17 0.17 0.17 0.18 0.18 0.16 0.15 0.18 0.24 0.22 0.25 0.25 0.28 0.28 0.30 0.33 0.33 0.32 0.23
0.00 0.01 0.01 0.02 0.03 0.04 0.05 0.08 0.11 0.31 0.64 0.79 0.84 0.66 0.50 0.40 0.45 0.46 0.44 0.46 0.52 0.44 0.31 0.23 0.23 0.21 0.20 0.19 0.23 0.26 0.25 0.28 0.28 0.36 0.38 0.37 0.39 0.37 0.29 0.36 0.48 0.61 0.70 0.71 0.83 0.96 0.78 0.60 0.60
0.00 0.00 0.01 0.02 0.03 0.02 0.02 0.05 0.12 0.25 0.59 0.74 0.71 0.63 0.58 0.48 0.46 0.65 0.74 0.67 0.69 0.69 0.51 0.39 0.32 0.31 0.31 0.34 0.36 0.42 0.41 0.49 0.53 0.62 0.69 0.70 0.62 0.50 0.44 0.53 0.73 0.91 0.98 0.97 1.33 1.46 1.06 1.12 1.34
0.00 0.00 0.00 0.02 0.03 0.01 0.02 0.05 0.18 0.28 0.42 0.54 0.54 0.83 0.89 0.60 0.60 0.74 0.82 0.92 0.88 0.94 0.78 0.67 0.57 0.56 0.56 0.57 0.56 0.57 0.59 0.66 0.74 0.82 0.88 0.97 0.98 0.85 0.80 0.88 1.01 1.18 1.23 1.44 1.61 1.79 1.61 1.65 1.57
0.00 0.00 0.00 0.01 0.01 0.02 0.05 0.08 0.14 0.34 0.43 0.51 0.62 0.73 0.78 0.62 0.63 0.71 0.92 0.91 1.01 1.08 0.98 0.93 0.81 0.79 0.80 0.88 0.95 0.91 0.92 0.96 1.01 1.11 1.18 1.27 1.39 1.35 1.34 1.28 1.34 1.29 1.46 1.65 1.93 1.92 2.16 2.17 1.93
0.00 0.00 0.00 0.01 0.02 0.05 0.17 0.23 0.21 0.42 0.44 0.43 0.58 0.79 0.70 0.64 0.72 0.62 0.69 0.87 1.08 1.11 1.03 1.01 1.03 1.14 1.21 1.23 1.28 1.38 1.45 1.46 1.48 1.49 1.53 1.63 1.79 1.97 1.90 1.71 1.67 1.54 1.62 1.89 2.14 2.17 2.52 2.38 2.25
0.00 0.01 0.03 0.05 0.07 0.13 0.22 0.37 0.36 0.45 0.41 0.48 0.51 0.63 0.68 0.67 0.69 0.69 0.72 0.79 0.96 1.00 1.02 1.19 1.43 1.58 1.70 1.79 1.88 1.88 1.93 1.89 1.91 2.05 2.13 2.17 2.18 2.22 2.09 1.94 1.85 1.94 2.06 2.19 2.19 2.29 2.57 2.31 2.21
0.00 0.05 0.10 0.13 0.14 0.18 0.35 0.70 0.59 0.58 0.47 0.51 0.58 0.64 0.69 0.70 0.73 0.76 0.76 0.79 0.90 1.01 1.14 1.37 1.65 1.96 2.15 2.22 2.32 2.35 2.29 2.22 2.31 2.35 2.40 2.42 2.34 2.26 2.30 2.07 1.92 2.18 2.30 2.39 2.47 2.47 2.50 2.43 2.33
0.02 0.05 0.12 0.17 0.11 0.14 0.27 0.51 0.45 0.53 0.57 0.59 0.65 0.63 0.65 0.66 0.71 0.74 0.76 0.86 1.08 1.37 1.61 1.87 1.95 2.07 2.24 2.47 2.61 2.44 2.35 2.25 2.24 2.22 2.24 2.22 2.21 2.24 2.47 2.25 2.24 2.42 2.58 2.48 2.30 2.59 2.68 2.53 2.46
0.02 0.06 0.10 0.14 0.14 0.12 0.23 0.38 0.42 0.51 0.63 0.69 0.70 0.74 0.82 0.86 0.99 1.09 1.16 1.30 1.47 1.83 2.11 2.15 2.15 2.41 2.82 3.12 3.05 2.78 2.43 2.24 2.14 2.06 2.01 2.05 2.18 2.26 2.50 2.29 2.34 2.54 2.65 2.66 2.64 2.70 2.69 2.55 2.57
0.02 0.07 0.10 0.12 0.18 0.19 0.27 0.32 0.53 0.71 0.78 0.84 1.01 1.21 1.37 1.48 1.54 1.63 1.76 1.92 2.00 2.04 2.19 2.30 2.59 2.98 3.16 3.12 3.10 3.06 2.74 2.46 2.14 1.91 1.91 2.00 2.04 2.20 2.45 2.18 2.47 2.62 2.60 2.66 2.69 2.81 2.68 2.52 2.71
0.04 0.09 0.12 0.15 0.22 0.20 0.32 0.42 0.60 0.91 0.98 0.95 0.96 1.00 1.06 1.41 1.63 1.77 1.92 2.00 1.96 2.08 2.30 2.58 2.89 3.20 3.11 3.24 3.41 3.34 3.10 2.52 2.17 1.97 1.94 1.99 2.04 2.11 2.28 2.53 2.57 2.64 2.65 2.65 2.62 2.63 2.43 2.25 2.59
0.06 0.08 0.12 0.17 0.27 0.23 0.32 0.58 0.74 0.97 1.11 0.99 0.92 0.88 0.83 1.06 1.35 1.46 1.54 1.65 1.89 2.22 2.59 2.85 3.04 3.11 3.08 3.21 3.30 3.03 2.79 2.36 2.22 2.21 2.11 2.05 2.17 2.22 2.35 2.52 2.59 2.51 2.43 2.45 2.55 2.45 2.30 2.12 2.25
0.07 0.06 0.07 0.12 0.21 0.31 0.39 0.80 1.09 1.27 1.14 0.94 0.95 1.00 1.08 1.18 1.19 1.28 1.39 1.63 1.97 2.29 2.66 2.99 2.99 2.96 2.91 3.01 3.08 2.92 2.64 2.36 2.26 2.28 2.08 1.93 1.91 1.98 2.09 2.16 2.31 2.37 2.36 2.32 2.29 2.26 2.27 2.16 2.03
0.05 0.05 0.05 0.11 0.18 0.30 0.42 0.73 1.13 1.23 1.08 0.88 0.86 1.02 1.21 1.15 1.08 1.20 1.34 1.54 1.72 2.03 2.33 2.61 2.80 2.84 2.76 2.72 2.69 2.66 2.46 2.21 2.08 2.02 1.90 1.85 1.88 1.80 1.81 1.92 2.10 2.16 2.08 2.07 2.21 2.37 2.33 2.16 1.99
0.04 0.05 0.08 0.16 0.29 0.49 0.38 0.50 0.90 1.11 0.99 0.82 0.81 0.92 1.07 1.23 1.23 1.27 1.46 1.58 1.65 1.84 2.10 2.27 2.40 2.45 2.41 2.32 2.28 2.30 2.24 2.18 2.03 1.88 1.89 1.92 1.86 1.74 1.68 1.71 1.82 1.90 1.88 1.86 1.90 2.00 2.03 2.00 2.07
0.05 0.12 0.31 0.53 0.75 0.68 0.45 0.57 0.93 0.86 0.72 0.65 0.69 0.87 1.08 1.30 1.31 1.39 1.55 1.64 1.69 1.72 1.77 1.83 1.87 1.92 1.86 1.78 1.74 1.78 1.80 1.82 1.75 1.73 1.79 1.83 1.76 1.68 1.65 1.59 1.54 1.55 1.58 1.67 1.82 1.84 1.84 1.92 2.01
0.08 0.16 0.39 0.42 0.50 0.52 0.55 0.79 0.89 0.72 0.60 0.59 0.62 0.75 0.99 1.11 1.17 1.28 1.35 1.27 1.21 1.23 1.28 1.31 1.32 1.34 1.31 1.33 1.37 1.40 1.49 1.54 1.53 1.64 1.65 1.70 1.68 1.63 1.52 1.39 1.34 1.33 1.36 1.44 1.61 1.77 1.79 1.86 1.91
0.16 0.22 0.20 0.32 0.34 0.51 0.66 0.79 0.77 0.60 0.69 0.74 0.76 0.81 0.84 0.84 0.82 0.84 0.86 0.89 0.95 0.97 0.97 0.97 1.01 1.02 0.97 0.97 1.06 1.14 1.20 1.28 1.30 1.40 1.43 1.41 1.41 1.34 1.30 1.27 1.26 1.22 1.25 1.29 1.32 1.45 1.47 1.56 1.62
0.18 0.28 0.38 0.55 0.62 0.62 0.63 0.86 1.00 0.98 0.96 0.90 1.00 1.19 1.03 0.74 0.62 0.59 0.59 0.63 0.67 0.70 0.75 0.79 0.88 0.97 0.95 0.88 0.88 0.90 0.95 1.00 1.10 1.17 1.19 1.23 1.26 1.23 1.17 1.18 1.18 1.13 1.11 1.13 1.16 1.20 1.25 1.23 1.29
0.27 0.35 0.44 0.55 0.59 0.61 0.66 0.79 0.67 0.93 0.99 0.98 1.00 1.00 0.83 0.54 0.38 0.33 0.34 0.38 0.46 0.59 0.67 0.69 0.80 0.88 0.84 0.74 0.73 0.77 0.80 0.83 0.89 0.96 0.98 1.03 1.09 1.16 1.17 1.14 1.10 1.01 0.95 0.94 0.97 0.98 1.08 1.09 1.08
0.22 0.34 0.44 0.55 0.56 0.57 0.61 0.74 0.51 0.65 0.70 0.71 0.73 0.57 0.44 0.31 0.23 0.21 0.21 0.25 0.33 0.42 0.47 0.55 0.64 0.74 0.76 0.72 0.72 0.76 0.79 0.79 0.79 0.82 0.81 0.82 0.88 0.91 0.93 0.93 0.99 1.02 1.00 0.98 0.96 0.93 0.91 0.96 0.99

GEFSSGP_prec_meanprecacc_132.txt.gz
Total_Precipitation_Accumulation
0.02 0.05 0.16 0.28 0.42 0.65 0.84 0.55 0.36 0.34 0.26 0.30 0.28 0.24 0.22 0.19 0.16 0.27 0.18 0.11 0.06 0.04 0.03 0.06 0.07 0.05 0.05 0.05 0.07 0.10 0.09 0.08 0.08 0.09 0.10 0.08 0.07 0.08 0.07 0.08 0.13 0.15 0.14 0.10 0.08 0.09 0.09 0.11 0.10
0.01 0.06 0.17 0.26 0.52 1.01 0.87 0.43 0.29 0.34 0.25 0.28 0.32 0.30 0.23 0.21 0.17 0.13 0.15 0.13 0.06 0.04 0.03 0.04 0.06 0.05 0.05 0.05 0.06 0.08 0.10 0.10 0.11 0.12 0.10 0.09 0.09 0.08 0.08 0.08 0.11 0.14 0.12 0.10 0.06 0.06 0.06 0.07 0.05
0.03 0.08 0.15 0.22 0.57 0.88 0.64 0.36 0.23 0.24 0.24 0.36 0.45 0.37 0.30 0.25 0.20 0.15 0.12 0.10 0.08 0.06 0.03 0.05 0.05 0.04 0.05 0.05 0.05 0.07 0.09 0.11 0.14 0.14 0.12 0.11 0.10 0.09 0.08 0.08 0.10 0.11 0.07 0.07 0.07 0.07 0.06 0.05 0.03
0.03 0.08 0.14 0.21 0.35 0.36 0.33 0.27 0.18 0.30 0.36 0.35 0.43 0.43 0.39 0.30 0.26 0.23 0.18 0.17 0.10 0.07 0.05 0.06 0.06 0.05 0.05 0.05 0.07 0.08 0.09 0.10 0.12 0.11 0.10 0.10 0.09 0.11 0.10 0.09 0.11 0.13 0.12 0.09 0.10 0.10 0.10 0.07 0.04
0.02 0.07 0.12 0.19 0.28 0.24 0.23 0.25 0.22 0.29 0.32 0.35 0.37 0.44 0.42 0.33 0.28 0.27 0.20 0.21 0.10 0.09 0.09 0.10 0.09 0.07 0.06 0.06 0.07 0.08 0.08 0.09 0.10 0.09 0.08 0.08 0.09 0.09 0.10 0.10 0.10 0.11 0.14 0.13 0.14 0.13 0.10 0.11 0.10
0.02 0.07 0.16 0.18 0.18 0.17 0.19 0.25 0.28 0.34 0.37 0.39 0.47 0.59 0.51 0.32 0.27 0.33 0.40 0.32 0.16 0.13 0.13 0.12 0.11 0.09 0.09 0.07 0.07 0.08 0.08 0.09 0.09 0.09 0.07 0.06 0.06 0.08 0.10 0.11 0.09 0.08 0.09 0.10 0.13 0.16 0.14 0.11 0.14
0.02 0.05 0.10 0.12 0.12 0.14 0.16 0.18 0.27 0.43 0.59 0.61 0.62 0.65 0.55 0.51 0.44 0.44 0.56 0.51 0.32 0.21 0.16 0.15 0.15 0.13 0.13 0.12 0.11 0.10 0.10 0.10 0.10 0.09 0.09 0.08 0.07 0.07 0.09 0.10 0.10 0.09 0.08 0.08 0.10 0.11 0.12 0.11 0.13
0.01 0.02 0.04 0.05 0.06 0.09 0.12 0.15 0.19 0.32 0.64 0.65 0.60 0.52 0.67 0.59 0.56 0.69 0.67 0.66 0.49 0.33 0.24 0.19 0.20 0.21 0.20 0.18 0.18 0.18 0.16 0.15 0.14 0.13 0.14 0.15 0.14 0.12 0.14 0.14 0.14 0.14 0.13 0.12 0.12 0.14 0.14 0.15 0.15
0.01 0.02 0.03 0.03 0.05 0.07 0.09 0.12 0.18 0.30 0.42 0.52 0.67 0.57 0.60 0.49 0.48 0.63 0.68 0.72 0.65 0.52 0.38 0.30 0.33 0.31 0.29 0.28 0.27 0.27 0.25 0.24 0.23 0.23 0.22 0.22 0.20 0.23 0.28 0.26 0.30 0.30 0.32 0.32 0.33 0.36 0.35 0.33 0.25
0.01 0.01 0.01 0.02 0.04 0.05 0.06 0.09 0.12 0.33 0.67 0.82 0.88 0.71 0.58 0.55 0.72 0.86 0.86 0.79 0.80 0.65 0.52 0.47 0.46 0.37 0.34 0.29 0.32 0.36 0.34 0.35 0.35 0.42 0.44 0.42 0.43 0.41 0.33 0.41 0.55 0.71 0.80 0.79 0.88 1.00 0.82 0.63 0.61
0.00 0.00 0.01 0.03 0.03 0.02 0.03 0.06 0.13 0.28 0.63 0.78 0.76 0.71 0.73 0.67 0.80 1.07 1.13 0.98 0.96 0.95 0.78 0.66 0.54 0.46 0.43 0.45 0.47 0.51 0.50 0.56 0.60 0.68 0.76 0.75 0.67 0.57 0.52 0.62 0.84 1.03 1.09 1.06 1.40 1.51 1.09 1.15 1.36
0.00 0.00 0.01 0.02 0.03 0.01 0.02 0.06 0.20 0.32 0.46 0.60 0.61 0.95 1.06 0.85 0.97 1.07 1.12 1.20 1.18 1.18 1.01 0.90 0.78 0.76 0.70 0.70 0.70 0.70 0.75 0.80 0.87 0.94 1.00 1.08 1.10 0.98 0.92 1.01 1.15 1.31 1.36 1.55 1.71 1.86 1.66 1.68 1.59
0.00 0.00 0.00 0.01 0.02 0.03 0.05 0.09 0.15 0.38 0.49 0.59 0.72 0.90 0.98 0.91 0.96 1.07 1.29 1.25 1.27 1.31 1.19 1.20 1.06 0.99 0.98 1.04 1.10 1.07 1.12 1.15 1.17 1.28 1.35 1.41 1.52 1.48 1.46 1.41 1.48 1.44 1.60 1.79 2.06 2.01 2.25 2.24 1.98
0.00 0.00 0.00 0.01 0.02 0.06 0.18 0.25 0.25 0.47 0.51 0.53 0.69 0.97 0.93 0.93 0.97 0.87 1.09 1.25 1.33 1.34 1.26 1.26 1.24 1.33 1.41 1.43 1.46 1.54 1.60 1.61 1.62 1.63 1.66 1.73 1.88 2.05 1.97 1.78 1.76 1.65 1.72 1.98 2.23 2.26 2.62 2.47 2.33
0.00 0.01 0.03 0.05 0.08 0.14 0.23 0.39 0.41 0.53 0.51 0.60 0.63 0.76 0.85 0.87 0.92 0.92 1.05 1.12 1.22 1.22 1.27 1.46 1.65 1.78 1.90 1.98 2.05 2.02 2.05 1.98 1.98 2.13 2.21 2.25 2.24 2.27 2.14 1.99 1.91 2.02 2.15 2.28 2.27 2.37 2.65 2.41 2.31
0.00 0.05 0.10 0.13 0.14 0.18 0.36 0.72 0.65 0.66 0.57 0.62 0.69 0.76 0.81 0.83 0.93 1.04 1.06 1.08 1.15 1.23 1.36 1.59 1.85 2.12 2.30 2.36 2.46 2.45 2.38 2.29 2.38 2.41 2.45 2.48 2.40 2.32 2.36 2.13 1.97 2.23 2.37 2.46 2.53 2.53 2.57 2.51 2.44
0.02 0.05 0.12 0.18 0.11 0.14 0.28 0.53 0.51 0.59 0.65 0.68 0.74 0.76 0.77 0.76 0.82 0.89 0.97 1.05 1.23 1.53 1.78 2.06 2.16 2.23 2.35 2.56 2.68 2.51 2.42 2.30 2.28 2.26 2.28 2.27 2.27 2.29 2.53 2.30 2.28 2.46 2.62 2.52 2.35 2.63 2.72 2.58 2.52
0.02 0.06 0.10 0.15 0.14 0.13 0.24 0.40 0.46 0.56 0.69 0.77 0.76 0.81 0.88 0.92 1.06 1.18 1.29 1.42 1.57 1.94 2.23 2.30 2.34 2.57 2.91 3.16 3.08 2.82 2.47 2.26 2.16 2.08 2.03 2.07 2.21 2.28 2.53 2.32 2.38 2.57 2.69 2.70 2.68 2.74 2.73 2.58 2.60
0.03 0.08 0.11 0.13 0.18 0.19 0.28 0.34 0.56 0.75 0.83 0.90 1.06 1.26 1.41 1.52 1.58 1.69 1.84 1.99 2.06 2.10 2.25 2.41 2.71 3.07 3.20 3.15 3.13 3.08 2.76 2.48 2.15 1.92 1.93 2.01 2.05 2.22 2.47 2.21 2.50 2.65 2.63 2.70 2.72 2.85 2.71 2.54 2.73
0.05 0.10 0.13 0.16 0.22 0.20 0.33 0.43 0.62 0.94 1.02 0.99 1.01 1.04 1.09 1.43 1.65 1.80 1.96 2.04 2.01 2.12 2.34 2.61 2.90 3.22 3.14 3.27 3.46 3.37 3.10 2.52 2.17 1.98 1.94 1.99 2.04 2.12 2.28 2.54 2.58 2.66 2.66 2.68 2.65 2.66 2.45 2.27 2.62
0.06 0.08 0.13 0.17 0.27 0.24 0.33 0.60 0.76 1.00 1.14 1.01 0.95 0.92 0.85 1.08 1.37 1.50 1.58 1.68 1.93 2.26 2.62 2.86 3.05 3.11 3.09 3.22 3.32 3.04 2.79 2.36 2.23 2.21 2.11 2.05 2.17 2.22 2.35 2.52 2.60 2.52 2.44 2.46 2.56 2.47 2.31 2.14 2.28
0.07 0.07 0.08 0.13 0.22 0.32 0.40 0.81 1.10 1.28 1.16 0.95 0.97 1.02 1.11 1.19 1.21 1.30 1.42 1.66 2.00 2.32 2.68 3.00 2.99 2.96 2.91 3.01 3.08 2.92 2.64 2.36 2.26 2.28 2.08 1.93 1.91 1.98 2.09 2.17 2.32 2.37 2.36 2.32 2.30 2.27 2.27 2.17 2.04
0.05 0.05 0.06 0.11 0.18 0.30 0.42 0.73 1.14 1.24 1.10 0.89 0.86 1.03 1.22 1.16 1.09 1.21 1.35 1.56 1.74 2.04 2.34 2.61 2.80 2.84 2.76 2.72 2.69 2.66 2.46 2.21 2.08 2.02 1.90 1.85 1.88 1.80 1.81 1.92 2.10 2.16 2.08 2.07 2.21 2.37 2.33 2.16 1.99
0.04 0.05 0.09 0.17 0.30 0.50 0.39 0.51 0.90 1.11 1.00 0.83 0.82 0.92 1.07 1.23 1.24 1.28 1.47 1.59 1.66 1.84 2.10 2.27 2.40 2.45 2.41 2.32 2.28 2.30 2.24 2.18 2.03 1.88 1.89 1.92 1.86 1.74 1.68 1.71 1.82 1.90 1.88 1.86 1.90 2.00 2.03 2.00 2.07
0.05 0.12 0.31 0.54 0.75 0.68 0.45 0.58 0.93 0.86 0.72 0.65 0.70 0.87 1.08 1.31 1.32 1.39 1.55 1.64 1.69 1.72 1.77 1.83 1.87 1.92 1.86 1.78 1.74 1.78 1.80 1.82 1.75 1.73 1.79 1.83 1.76 1.68 1.65 1.59 1.54 1.55 1.58 1.67 1.82 1.84 1.84 1.92 2.02
0.08 0.16 0.39 0.42 0.50 0.53 0.56 0.79 0.89 0.72 0.60 0.59 0.62 0.75 0.99 1.11 1.17 1.28 1.36 1.27 1.21 1.23 1.28 1.31 1.32 1.34 1.31 1.33 1.37 1.40 1.49 1.54 1.53 1.64 1.65 1.70 1.68 1.63 1.52 1.39 1.34 1.33 1.36 1.44 1.61 1.77 1.79 1.86 1.91
0.16 0.22 0.20 0.32 0.34 0.51 0.66 0.79 0.77 0.60 0.69 0.74 0.76 0.81 0.84 0.84 0.82 0.84 0.86 0.89 0.95 0.97 0.97 0.97 1.01 1.02 0.97 0.97 1.06 1.14 1.20 1.28 1.30 1.40 1.43 1.41 1.41 1.34 1.30 1.27 1.26 1.22 1.25 1.29 1.32 1.45 1.47 1.56 1.62
0.18 0.28 0.38 0.55 0.62 0.62 0.63 0.86 1.00 0.98 0.96 0.90 1.00 1.19 1.03 0.74 0.62 0.59 0.59 0.63 0.67 0.70 0.75 0.79 0.88 0.97 0.95 0.88 0.88 0.90 0.95 1.00 1.10 1.17 1.19 1.23 1.26 1.23 1.17 1.18 1.18 1.13 1.11 1.13 1.16 1.20 1.25 1.23 1.29
0.28 0.35 0.44 0.55 0.59 0.61 0.66 0.79 0.67 0.93 0.99 0.98 1.00 1.00 0.83 0.54 0.38 0.33 0.34 0.39 0.46 0.59 0.67 0.69 0.80 0.88 0.84 0.74 0.73 0.77 0.80 0.83 0.89 0.96 0.98 1.03 1.09 1.16 1.17 1.14 1.10 1.01 0.95 0.94 0.97 0.98 1.08 1.09 1.08
0.22 0.34 0.44 0.55 0.56 0.57 0.61 0.74 0.51 0.65 0.70 0.71 0.73 0.57 0.44 0.31 0.23 0.21 0.21 0.25 0.33 0.42 0.47 0.55 0.64 0.74 0.76 0.72 0.72 0.76 0.79 0.79 0.79 0.82 0.81 0.82 0.88 0.91 0.93 0.93 0.99 1.02 1.00 0.98 0.96 0.93 0.91 0.96 0.99

GEFSSGP_prec_meanprecacc_138.txt.gz
Total_Precipitation_Accumulation
0.02 0.05 0.16 0.29 0.42 0.66 0.85 0.55 0.37 0.36 0.28 0.31 0.29 0.26 0.27 0.24 0.21 0.32 0.21 0.12 0.07 0.04 0.04 0.07 0.08 0.07 0.07 0.07 0.10 0.12 0.12 0.10 0.09 0.10 0.11 0.09 0.08 0.09 0.09 0.10 0.14 0.17 0.15 0.11 0.10 0.10 0.11 0.13 0.13
0.01 0.06 0.17 0.27 0.52 1.02 0.87 0.43 0.29 0.36 0.25 0.29 0.34 0.34 0.30 0.25 0.20 0.16 0.18 0.15 0.07 0.05 0.04 0.05 0.07 0.06 0.07 0.07 0.08 0.11 0.12 0.12 0.13 0.14 0.12 0.10 0.10 0.10 0.10 0.10 0.13 0.16 0.13 0.12 0.08 0.07 0.07 0.08 0.07
0.03 0.08 0.15 0.22 0.58 0.88 0.64 0.36 0.24 0.25 0.25 0.37 0.46 0.41 0.36 0.30 0.24 0.19 0.15 0.12 0.10 0.08 0.05 0.07 0.07 0.06 0.07 0.07 0.08 0.09 0.12 0.13 0.15 0.15 0.14 0.13 0.12 0.11 0.10 0.10 0.12 0.13 0.09 0.08 0.08 0.08 0.07 0.06 0.04
0.03 0.09 0.14 0.21 0.35 0.36 0.33 0.27 0.18 0.30 0.36 0.35 0.45 0.46 0.42 0.34 0.30 0.26 0.21 0.20 0.13 0.10 0.08 0.10 0.10 0.08 0.07 0.08 0.09 0.10 0.11 0.12 0.13 0.13 0.12 0.12 0.12 0.13 0.12 0.11 0.13 0.16 0.15 0.11 0.11 0.11 0.11 0.07 0.05
0.02 0.07 0.13 0.19 0.28 0.24 0.23 0.25 0.22 0.30 0.33 0.35 0.38 0.47 0.45 0.37 0.30 0.30 0.23 0.25 0.13 0.12 0.14 0.17 0.17 0.12 0.10 0.09 0.10 0.11 0.11 0.12 0.12 0.12 0.11 0.10 0.11 0.11 0.12 0.11 0.12 0.13 0.15 0.15 0.15 0.14 0.11 0.11 0.10
0.02 0.07 0.16 0.18 0.18 0.17 0.19 0.25 0.29 0.35 0.37 0.40 0.48 0.63 0.54 0.35 0.29 0.36 0.44 0.35 0.19 0.17 0.19 0.23 0.21 0.15 0.14 0.12 0.11 0.11 0.11 0.11 0.12 0.12 0.10 0.09 0.08 0.09 0.12 0.13 0.12 0.10 0.10 0.12 0.15 0.18 0.15 0.12 0.15
0.02 0.05 0.10 0.12 0.12 0.14 0.16 0.18 0.27 0.44 0.60 0.62 0.65 0.70 0.59 0.54 0.49 0.49 0.61 0.58 0.38 0.27 0.26 0.29 0.27 0.20 0.18 0.16 0.15 0.14 0.14 0.14 0.13 0.13 0.13 0.11 0.09 0.09 0.12 0.14 0.14 0.12 0.11 0.11 0.12 0.13 0.13 0.12 0.15
0.01 0.02 0.04 0.05 0.06 0.10 0.13 0.15 0.19 0.33 0.66 0.66 0.62 0.56 0.71 0.64 0.63 0.78 0.82 0.77 0.58 0.41 0.36 0.35 0.34 0.30 0.26 0.23 0.22 0.22 0.20 0.18 0.18 0.17 0.18 0.19 0.18 0.17 0.19 0.19 0.18 0.19 0.19 0.16 0.15 0.17 0.17 0.17 0.17
0.01 0.02 0.03 0.03 0.05 0.07 0.09 0.13 0.18 0.31 0.43 0.53 0.68 0.59 0.63 0.55 0.56 0.74 0.82 0.84 0.77 0.62 0.51 0.42 0.42 0.41 0.37 0.34 0.33 0.32 0.31 0.29 0.27 0.28 0.28 0.28 0.27 0.29 0.35 0.31 0.34 0.35 0.36 0.38 0.38 0.40 0.38 0.36 0.27
0.01 0.01 0.01 0.02 0.04 0.05 0.06 0.09 0.13 0.35 0.70 0.85 0.90 0.72 0.60 0.62 0.83 1.00 1.00 0.91 0.91 0.75 0.63 0.59 0.56 0.46 0.40 0.35 0.39 0.44 0.43 0.44 0.43 0.48 0.50 0.49 0.51 0.48 0.39 0.46 0.62 0.78 0.86 0.85 0.94 1.05 0.86 0.66 0.65
0.00 0.00 0.01 0.03 0.04 0.02 0.03 0.06 0.14 0.29 0.66 0.81 0.79 0.73 0.76 0.75 0.93 1.21 1.27 1.11 1.08 1.05 0.88 0.78 0.67 0.57 0.53 0.55 0.56 0.60 0.59 0.66 0.68 0.75 0.83 0.83 0.76 0.65 0.60 0.70 0.92 1.12 1.18 1.15 1.47 1.58 1.15 1.20 1.42
0.00 0.00 0.01 0.02 0.03 0.01 0.02 0.07 0.21 0.34 0.49 0.63 0.65 1.00 1.13 0.93 1.07 1.19 1.25 1.34 1.31 1.32 1.14 1.01 0.89 0.88 0.81 0.81 0.79 0.78 0.83 0.90 0.96 1.02 1.09 1.19 1.23 1.12 1.10 1.14 1.24 1.41 1.49 1.69 1.83 1.98 1.76 1.76 1.65
0.00 0.00 0.00 0.01 0.02 0.03 0.06 0.11 0.17 0.40 0.51 0.64 0.78 0.97 1.05 0.99 1.09 1.20 1.43 1.43 1.44 1.44 1.30 1.29 1.14 1.08 1.08 1.15 1.21 1.17 1.23 1.25 1.25 1.36 1.45 1.54 1.67 1.64 1.64 1.54 1.59 1.56 1.73 1.91 2.19 2.13 2.37 2.34 2.07
0.00 0.00 0.01 0.01 0.03 0.06 0.19 0.27 0.27 0.50 0.55 0.62 0.81 1.07 1.01 1.01 1.06 0.97 1.18 1.37 1.46 1.46 1.38 1.39 1.36 1.42 1.50 1.52 1.55 1.65 1.70 1.69 1.67 1.69 1.73 1.81 1.98 2.16 2.10 1.91 1.87 1.77 1.84 2.10 2.36 2.39 2.74 2.59 2.44
0.00 0.01 0.03 0.05 0.08 0.14 0.24 0.41 0.43 0.56 0.56 0.68 0.75 0.88 0.96 0.96 1.01 1.03 1.15 1.21 1.30 1.31 1.39 1.62 1.80 1.91 2.02 2.10 2.15 2.12 2.16 2.06 2.04 2.20 2.29 2.34 2.33 2.35 2.23 2.08 2.00 2.11 2.26 2.40 2.43 2.52 2.80 2.55 2.42
0.00 0.05 0.10 0.13 0.15 0.19 0.37 0.74 0.67 0.69 0.63 0.69 0.76 0.87 0.93 0.93 1.05 1.17 1.17 1.18 1.23 1.30 1.44 1.70 1.96 2.25 2.43 2.48 2.57 2.56 2.50 2.39 2.46 2.50 2.54 2.56 2.48 2.40 2.43 2.19 2.03 2.30 2.45 2.59 2.68 2.65 2.69 2.65 2.57
0.02 0.06 0.13 0.18 0.11 0.15 0.29 0.55 0.52 0.63 0.70 0.74 0.79 0.82 0.84 0.83 0.91 0.99 1.10 1.17 1.32 1.60 1.88 2.20 2.30 2.35 2.45 2.65 2.76 2.60 2.51 2.39 2.35 2.33 2.34 2.32 2.31 2.34 2.59 2.36 2.33 2.50 2.69 2.60 2.43 2.71 2.81 2.68 2.63
0.02 0.06 0.11 0.15 0.14 0.13 0.24 0.41 0.48 0.58 0.72 0.81 0.81 0.85 0.93 0.97 1.11 1.24 1.38 1.52 1.64 2.01 2.32 2.40 2.46 2.69 3.01 3.26 3.15 2.87 2.52 2.31 2.20 2.11 2.05 2.09 2.24 2.32 2.57 2.35 2.40 2.61 2.74 2.76 2.75 2.80 2.79 2.64 2.67
0.03 0.08 0.11 0.13 0.18 0.20 0.28 0.35 0.58 0.77 0.86 0.94 1.09 1.30 1.43 1.56 1.62 1.72 1.86 2.03 2.09 2.14 2.31 2.47 2.79 3.16 3.28 3.24 3.21 3.13 2.80 2.51 2.17 1.95 1.95 2.03 2.06 2.23 2.50 2.23 2.52 2.67 2.65 2.74 2.77 2.90 2.77 2.60 2.77
0.05 0.10 0.13 0.16 0.22 0.20 0.33 0.44 0.64 0.96 1.04 1.01 1.03 1.06 1.10 1.44 1.67 1.81 1.97 2.05 2.02 2.13 2.37 2.65 2.95 3.27 3.17 3.31 3.50 3.40 3.13 2.55 2.18 1.98 1.95 2.00 2.05 2.13 2.30 2.56 2.60 2.67 2.68 2.70 2.68 2.70 2.50 2.32 2.66
0.06 0.08 0.13 0.17 0.27 0.24 0.33 0.61 0.77 1.01 1.14 1.02 0.96 0.93 0.86 1.08 1.38 1.50 1.59 1.70 1.94 2.28 2.64 2.88 3.06 3.13 3.11 3.24 3.33 3.05 2.81 2.37 2.23 2.22 2.11 2.06 2.18 2.23 2.36 2.53 2.62 2.54 2.45 2.48 2.59 2.50 2.35 2.17 2.31
0.07 0.07 0.08 0.13 0.22 0.32 0.40 0.82 1.11 1.29 1.17 0.96 0.97 1.03 1.11 1.20 1.21 1.31 1.43 1.67 2.01 2.33 2.69 3.01 3.00 2.97 2.92 3.02 3.09 2.93 2.65 2.37 2.26 2.28 2.08 1.93 1.92 1.98 2.09 2.17 2.33 2.39 2.38 2.34 2.31 2.29 2.30 2.20 2.07
0.05 0.05 0.06 0.11 0.18 0.31 0.42 0.74 1.14 1.24 1.11 0.89 0.87 1.04 1.23 1.16 1.09 1.21 1.36 1.56 1.75 2.05 2.34 2.61 2.80 2.84 2.77 2.73 2.70 2.66 2.47 2.22 2.08 2.02 1.90 1.85 1.88 1.81 1.81 1.92 2.11 2.16 2.09 2.07 2.22 2.38 2.35 2.18 2.02
0.04 0.05 0.09 0.17 0.30 0.50 0.39 0.51 0.90 1.11 1.00 0.83 0.82 0.93 1.08 1.23 1.24 1.29 1.47 1.59 1.67 1.85 2.10 2.27 2.40 2.45 2.41 2.32 2.29 2.31 2.24 2.18 2.03 1.88 1.89 1.92 1.86 1.74 1.68 1.71 1.83 1.90 1.89 1.86 1.90 2.01 2.04 2.01 2.08
0.05 0.12 0.32 0.55 0.76 0.69 0.45 0.58 0.93 0.86 0.72 0.65 0.70 0.87 1.09 1.31 1.32 1.40 1.56 1.64 1.70 1.72 1.77 1.83 1.87 1.93 1.87 1.78 1.74 1.78 1.80 1.82 1.75 1.73 1.79 1.84 1.76 1.68 1.65 1.59 1.55 1.55 1.59 1.68 1.82 1.84 1.85 1.93 2.03
0.08 0.16 0.40 0.43 0.50 0.53 0.56 0.79 0.89 0.72 0.60 0.59 0.62 0.75 0.99 1.11 1.17 1.28 1.36 1.27 1.22 1.24 1.28 1.32 1.32 1.34 1.31 1.33 1.37 1.40 1.50 1.54 1.53 1.64 1.65 1.70 1.68 1.63 1.52 1.39 1.34 1.33 1.36 1.45 1.61 1.78 1.79 1.88 1.92
0.17 0.22 0.20 0.32 0.34 0.52 0.67 0.79 0.77 0.60 0.69 0.74 0.76 0.81 0.84 0.84 0.82 0.84 0.86 0.89 0.95 0.98 0.98 0.97 1.01 1.02 0.97 0.97 1.06 1.14 1.20 1.28 1.30 1.41 1.43 1.41 1.41 1.34 1.30 1.27 1.26 1.22 1.25 1.29 1.33 1.45 1.47 1.56 1.62
0.18 0.29 0.38 0.55 0.62 0.62 0.63 0.86 1.00 0.98 0.96 0.90 1.00 1.19 1.03 0.74 0.62 0.59 0.59 0.63 0.67 0.70 0.75 0.80 0.88 0.97 0.95 0.89 0.88 0.90 0.95 1.00 1.10 1.17 1.19 1.23 1.26 1.23 1.17 1.18 1.18 1.13 1.11 1.13 1.17 1.20 1.26 1.24 1.29
0.28 0.35 0.44 0.55 0.59 0.61 0.66 0.79 0.67 0.93 0.99 0.98 1.00 1.00 0.83 0.54 0.38 0.33 0.34 0.39 0.46 0.59 0.67 0.69 0.80 0.88 0.84 0.74 0.73 0.78 0.80 0.83 0.89 0.96 0.98 1.03 1.09 1.16 1.17 1.14 1.10 1.01 0.95 0.94 0.97 0.98 1.08 1.09 1.08
0.22 0.34 0.44 0.55 0.56 0.57 0.61 0.74 0.51 0.65 0.70 0.71 0.73 0.57 0.44 0.31 0.23 0.21 0.21 0.25 0.33 0.42 0.47 0.55 0.64 0.74 0.76 0.72 0.72 0.76 0.79 0.79 0.79 0.82 0.81 0.83 0.88 0.91 0.93 0.93 0.99 1.02 1.00 0.98 0.97 0.93 0.91 0.97 0.99

GEFSSGP_prec_meanprecacc_144.txt.gz
Total_Precipitation_Accumulation
0.02 0.05 0.16 0.29 0.46 0.73 0.91 0.57 0.38 0.36 0.28 0.31 0.29 0.26 0.28 0.31 0.34 0.51 0.28 0.13 0.07 0.05 0.04 0.08 0.09 0.08 0.08 0.09 0.12 0.15 0.15 0.12 0.12 0.13 0.13 0.11 0.11 0.11 0.10 0.11 0.16 0.18 0.16 0.13 0.12 0.12 0.12 0.14 0.14
0.01 0.06 0.17 0.28 0.58 1.06 0.91 0.46 0.32 0.36 0.26 0.29 0.34 0.34 0.33 0.32 0.24 0.19 0.20 0.16 0.07 0.05 0.06 0.06 0.07 0.07 0.08 0.09 0.10 0.13 0.15 0.16 0.16 0.17 0.14 0.13 0.13 0.13 0.12 0.12 0.14 0.17 0.15 0.13 0.09 0.09 0.09 0.09 0.07
0.03 0.08 0.16 0.24 0.60 0.90 0.66 0.37 0.25 0.25 0.25 0.37 0.47 0.42 0.38 0.34 0.26 0.20 0.16 0.13 0.11 0.09 0.07 0.09 0.08 0.07 0.08 0.09 0.10 0.12 0.15 0.17 0.19 0.18 0.16 0.16 0.14 0.14 0.13 0.12 0.14 0.14 0.11 0.10 0.09 0.10 0.09 0.07 0.05
0.03 0.09 0.15 0.22 0.36 0.36 0.34 0.28 0.19 0.30 0.37 0.38 0.46 0.50 0.45 0.36 0.31 0.27 0.21 0.21 0.13 0.11 0.09 0.12 0.13 0.11 0.10 0.10 0.12 0.14 0.15 0.16 0.17 0.15 0.14 0.14 0.14 0.15 0.14 0.13 0.15 0.17 0.17 0.13 0.13 0.13 0.12 0.09 0.06
0.02 0.07 0.15 0.20 0.29 0.25 0.23 0.26 0.22 0.30 0.34 0.37 0.40 0.55 0.53 0.41 0.31 0.31 0.24 0.26 0.14 0.16 0.16 0.20 0.21 0.18 0.14 0.12 0.13 0.14 0.14 0.16 0.16 0.14 0.13 0.13 0.14 0.15 0.15 0.14 0.14 0.14 0.17 0.17 0.17 0.16 0.12 0.12 0.11
0.02 0.08 0.17 0.18 0.18 0.17 0.19 0.25 0.29 0.35 0.39 0.43 0.51 0.71 0.64 0.42 0.33 0.38 0.45 0.37 0.22 0.23 0.23 0.25 0.24 0.21 0.19 0.16 0.15 0.15 0.14 0.14 0.15 0.15 0.13 0.12 0.12 0.13 0.15 0.16 0.14 0.12 0.12 0.14 0.16 0.19 0.15 0.12 0.16
0.02 0.05 0.10 0.12 0.12 0.15 0.17 0.19 0.27 0.45 0.63 0.65 0.69 0.80 0.70 0.63 0.54 0.52 0.63 0.61 0.45 0.39 0.31 0.32 0.29 0.23 0.20 0.19 0.18 0.17 0.17 0.16 0.15 0.15 0.16 0.14 0.12 0.12 0.14 0.16 0.16 0.14 0.12 0.12 0.14 0.14 0.14 0.12 0.16
0.01 0.02 0.04 0.05 0.09 0.14 0.15 0.16 0.20 0.35 0.69 0.67 0.64 0.67 0.83 0.71 0.69 0.85 0.87 0.84 0.67 0.57 0.44 0.41 0.39 0.34 0.28 0.26 0.25 0.25 0.22 0.20 0.19 0.18 0.20 0.22 0.21 0.19 0.22 0.21 0.20 0.21 0.21 0.18 0.16 0.18 0.17 0.18 0.17
0.01 0.03 0.04 0.03 0.06 0.08 0.10 0.14 0.20 0.31 0.44 0.54 0.70 0.64 0.68 0.59 0.63 0.84 0.97 0.98 0.89 0.76 0.64 0.54 0.52 0.48 0.42 0.39 0.36 0.35 0.34 0.31 0.29 0.30 0.30 0.31 0.33 0.38 0.42 0.36 0.37 0.37 0.38 0.40 0.40 0.41 0.40 0.37 0.28
0.01 0.02 0.02 0.02 0.04 0.05 0.06 0.10 0.14 0.35 0.73 0.94 1.00 0.79 0.64 0.66 0.91 1.13 1.22 1.10 1.06 0.88 0.77 0.75 0.72 0.61 0.51 0.43 0.48 0.54 0.51 0.51 0.49 0.58 0.56 0.57 0.64 0.60 0.48 0.54 0.66 0.81 0.88 0.88 0.96 1.07 0.87 0.68 0.68
0.00 0.00 0.01 0.03 0.04 0.03 0.03 0.06 0.14 0.30 0.70 0.91 0.96 0.84 0.81 0.82 1.05 1.35 1.49 1.30 1.22 1.16 0.98 0.93 0.86 0.74 0.66 0.70 0.69 0.72 0.72 0.78 0.78 0.86 0.92 0.94 0.85 0.72 0.68 0.80 1.00 1.19 1.24 1.23 1.55 1.61 1.18 1.25 1.48
0.00 0.00 0.01 0.02 0.03 0.02 0.02 0.07 0.21 0.35 0.52 0.72 0.73 1.08 1.21 1.03 1.19 1.31 1.41 1.56 1.52 1.48 1.27 1.13 1.05 1.01 0.97 0.95 0.93 0.89 0.93 1.00 1.06 1.17 1.21 1.32 1.35 1.23 1.20 1.27 1.36 1.53 1.62 1.84 1.97 2.09 1.83 1.82 1.71
0.00 0.00 0.00 0.01 0.02 0.03 0.06 0.12 0.18 0.41 0.52 0.67 0.85 1.06 1.17 1.11 1.22 1.30 1.56 1.67 1.74 1.59 1.40 1.39 1.24 1.18 1.20 1.27 1.34 1.28 1.34 1.36 1.37 1.49 1.57 1.65 1.80 1.77 1.76 1.67 1.70 1.67 1.85 2.03 2.30 2.23 2.47 2.42 2.15
0.00 0.01 0.01 0.02 0.03 0.06 0.21 0.31 0.28 0.51 0.58 0.68 0.91 1.21 1.20 1.17 1.23 1.09 1.29 1.54 1.70 1.61 1.50 1.49 1.44 1.49 1.61 1.62 1.65 1.76 1.81 1.79 1.78 1.79 1.84 1.90 2.08 2.27 2.21 2.00 1.98 1.88 1.95 2.22 2.47 2.49 2.87 2.71 2.56
0.01 0.03 0.04 0.06 0.09 0.15 0.26 0.45 0.46 0.59 0.63 0.79 0.86 1.05 1.15 1.09 1.15 1.21 1.28 1.35 1.44 1.44 1.51 1.71 1.87 1.97 2.10 2.19 2.24 2.22 2.25 2.14 2.12 2.28 2.37 2.40 2.39 2.42 2.30 2.15 2.07 2.19 2.32 2.49 2.53 2.62 2.93 2.65 2.54
0.01 0.08 0.13 0.15 0.16 0.21 0.39 0.81 0.75 0.78 0.72 0.77 0.82 0.94 1.02 1.02 1.15 1.36 1.33 1.30 1.35 1.40 1.53 1.78 2.03 2.30 2.49 2.56 2.68 2.68 2.58 2.45 2.52 2.56 2.60 2.61 2.52 2.43 2.49 2.25 2.08 2.35 2.50 2.66 2.80 2.77 2.82 2.80 2.73
0.04 0.09 0.16 0.19 0.13 0.15 0.30 0.61 0.59 0.69 0.82 0.79 0.81 0.85 0.88 0.87 0.98 1.11 1.20 1.25 1.41 1.69 1.96 2.27 2.39 2.41 2.50 2.70 2.84 2.69 2.59 2.45 2.42 2.39 2.40 2.37 2.35 2.37 2.62 2.41 2.39 2.57 2.76 2.67 2.50 2.82 2.93 2.84 2.80
0.03 0.08 0.12 0.16 0.15 0.13 0.26 0.43 0.51 0.61 0.75 0.84 0.84 0.88 0.96 1.01 1.19 1.33 1.48 1.58 1.72 2.09 2.39 2.47 2.54 2.77 3.08 3.33 3.23 2.95 2.59 2.37 2.26 2.16 2.10 2.13 2.26 2.34 2.59 2.38 2.44 2.66 2.81 2.84 2.84 2.89 2.87 2.74 2.79
0.03 0.09 0.11 0.13 0.18 0.20 0.29 0.36 0.60 0.80 0.89 0.98 1.14 1.33 1.46 1.60 1.67 1.76 1.92 2.08 2.15 2.19 2.36 2.54 2.87 3.23 3.35 3.32 3.29 3.20 2.86 2.55 2.21 1.98 1.97 2.05 2.08 2.24 2.52 2.25 2.55 2.70 2.70 2.80 2.84 2.99 2.85 2.70 2.87
0.05 0.10 0.13 0.16 0.22 0.21 0.34 0.45 0.65 0.98 1.06 1.03 1.07 1.10 1.12 1.46 1.69 1.84 2.00 2.08 2.06 2.17 2.41 2.70 2.99 3.31 3.22 3.36 3.56 3.45 3.17 2.58 2.22 2.02 1.98 2.03 2.08 2.15 2.31 2.57 2.63 2.70 2.72 2.74 2.72 2.76 2.57 2.38 2.72
0.06 0.09 0.13 0.17 0.28 0.24 0.34 0.62 0.78 1.01 1.15 1.03 0.98 0.96 0.87 1.09 1.38 1.52 1.61 1.72 1.96 2.31 2.68 2.92 3.09 3.16 3.14 3.26 3.36 3.07 2.83 2.40 2.27 2.26 2.15 2.08 2.20 2.25 2.39 2.55 2.64 2.57 2.48 2.51 2.61 2.53 2.39 2.22 2.35
0.08 0.07 0.08 0.13 0.23 0.33 0.42 0.86 1.12 1.30 1.18 0.97 0.98 1.04 1.12 1.20 1.22 1.32 1.44 1.68 2.02 2.35 2.71 3.04 3.02 3.00 2.95 3.05 3.12 2.96 2.69 2.41 2.31 2.32 2.11 1.96 1.93 1.99 2.11 2.19 2.34 2.41 2.40 2.36 2.33 2.31 2.32 2.23 2.11
0.06 0.05 0.06 0.11 0.19 0.31 0.44 0.77 1.18 1.26 1.14 0.92 0.88 1.04 1.23 1.16 1.10 1.23 1.37 1.57 1.76 2.05 2.35 2.63 2.82 2.86 2.79 2.75 2.72 2.69 2.50 2.25 2.10 2.04 1.92 1.87 1.90 1.81 1.82 1.93 2.11 2.17 2.10 2.08 2.23 2.39 2.36 2.20 2.05
0.04 0.05 0.09 0.18 0.33 0.56 0.43 0.55 0.95 1.14 1.01 0.84 0.84 0.94 1.08 1.24 1.24 1.29 1.48 1.60 1.68 1.86 2.11 2.29 2.42 2.47 2.42 2.34 2.30 2.33 2.26 2.20 2.05 1.90 1.91 1.94 1.87 1.75 1.69 1.72 1.83 1.91 1.90 1.87 1.91 2.02 2.05 2.03 2.11
0.05 0.13 0.38 0.65 0.88 0.77 0.49 0.61 0.97 0.87 0.72 0.65 0.70 0.89 1.09 1.31 1.32 1.40 1.56 1.64 1.70 1.74 1.79 1.85 1.90 1.95 1.88 1.80 1.75 1.80 1.81 1.83 1.77 1.75 1.80 1.84 1.77 1.69 1.65 1.60 1.55 1.56 1.60 1.68 1.83 1.85 1.85 1.94 2.04
0.09 0.17 0.44 0.52 0.59 0.60 0.60 0.83 0.91 0.72 0.60 0.59 0.62 0.75 0.99 1.12 1.18 1.28 1.36 1.27 1.22 1.24 1.29 1.33 1.34 1.36 1.32 1.34 1.37 1.41 1.50 1.54 1.53 1.65 1.66 1.70 1.68 1.63 1.52 1.39 1.35 1.34 1.36 1.45 1.62 1.78 1.80 1.88 1.93
0.17 0.22 0.21 0.34 0.37 0.58 0.72 0.83 0.78 0.61 0.70 0.74 0.77 0.81 0.84 0.84 0.82 0.84 0.86 0.90 0.95 0.98 0.98 0.98 1.02 1.03 0.98 0.97 1.07 1.15 1.21 1.28 1.30 1.41 1.44 1.42 1.41 1.34 1.30 1.27 1.26 1.22 1.25 1.30 1.33 1.46 1.48 1.56 1.62
0.18 0.29 0.39 0.56 0.66 0.67 0.69 0.90 1.02 0.99 0.96 0.90 1.01 1.20 1.03 0.74 0.62 0.59 0.59 0.63 0.67 0.70 0.75 0.80 0.89 0.97 0.95 0.89 0.89 0.90 0.95 1.00 1.10 1.17 1.20 1.23 1.26 1.24 1.17 1.18 1.18 1.13 1.11 1.14 1.17 1.21 1.26 1.24 1.29
0.28 0.35 0.44 0.55 0.60 0.65 0.72 0.83 0.69 0.95 1.00 0.99 1.00 1.00 0.83 0.54 0.38 0.33 0.34 0.39 0.46 0.59 0.67 0.69 0.80 0.88 0.84 0.74 0.73 0.78 0.80 0.83 0.89 0.97 0.98 1.03 1.09 1.16 1.18 1.14 1.10 1.01 0.95 0.95 0.97 0.98 1.08 1.09 1.09
0.23 0.35 0.45 0.57 0.57 0.59 0.67 0.78 0.52 0.67 0.71 0.71 0.73 0.57 0.44 0.32 0.23 0.21 0.21 0.25 0.33 0.42 0.47 0.55 0.64 0.74 0.76 0.72 0.72 0.76 0.79 0.79 0.79 0.83 0.81 0.83 0.88 0.91 0.93 0.93 0.99 1.02 1.01 0.98 0.97 0.93 0.92 0.97 1.00